Time,TemperatureF,DewpointF,PressureIn,WindDirection,WindDirectionDegrees,WindSpeedMPH,WindSpeedGustMPH,Humidity,HourlyPrecipIn,Conditions,Clouds,dailyrainin,SoftwareType,DateUTC
2013-02-01 00:00:00,3.8,-1.0,30.33,WNW,285,3.0,3.0,80,0.00,,,0.00,Wunderground v.1.15,2013-02-01 06:00:00,
2013-02-01 00:03:00,3.7,-1.1,30.33,WNW,285,3.0,4.0,80,0.00,,,0.00,Wunderground v.1.15,2013-02-01 06:03:00,
2013-02-01 00:05:00,3.8,-1.0,30.33,East,85,3.0,4.0,80,0.00,,,0.00,Wunderground v.1.15,2013-02-01 06:05:00,
2013-02-01 00:06:00,3.7,-1.1,30.33,WNW,285,3.0,4.0,80,0.00,,,0.00,Wunderground v.1.15,2013-02-01 06:06:00,
2013-02-01 00:07:00,3.7,-1.1,30.33,WNW,293,3.0,4.0,80,0.00,,,0.00,Wunderground v.1.15,2013-02-01 06:07:00,
2013-02-01 00:08:00,3.7,-1.1,30.34,NW,311,3.0,4.0,80,0.00,,,0.00,Wunderground v.1.15,2013-02-01 06:08:00,
2013-02-01 00:12:00,3.7,-1.1,30.34,NW,319,3.0,3.0,80,0.00,,,0.00,Wunderground v.1.15,2013-02-01 06:12:00,
2013-02-01 00:13:00,3.7,-1.1,30.34,WNW,293,2.0,3.0,80,0.00,,,0.00,Wunderground v.1.15,2013-02-01 06:13:00,
2013-02-01 00:14:00,3.7,-1.1,30.34,West,280,2.0,7.0,80,0.00,,,0.00,Wunderground v.1.15,2013-02-01 06:14:00,
2013-02-01 00:17:00,3.7,-1.1,30.34,WNW,285,3.0,7.0,80,0.00,,,0.00,Wunderground v.1.15,2013-02-01 06:17:00,
2013-02-01 00:18:00,3.7,-1.1,30.34,NNW,333,3.0,7.0,80,0.00,,,0.00,Wunderground v.1.15,2013-02-01 06:18:00,
2013-02-01 00:22:00,3.8,-1.0,30.34,WNW,293,4.0,7.0,80,0.00,,,0.00,Wunderground v.1.15,2013-02-01 06:22:00,
2013-02-01 00:23:00,3.8,-1.0,30.34,WNW,288,4.0,7.0,80,0.00,,,0.00,Wunderground v.1.15,2013-02-01 06:23:00,
2013-02-01 00:24:00,3.8,-1.0,30.34,West,260,4.0,7.0,80,0.00,,,0.00,Wunderground v.1.15,2013-02-01 06:24:00,
2013-02-01 00:28:00,3.8,-1.0,30.35,WNW,284,4.0,7.0,80,0.00,,,0.00,Wunderground v.1.15,2013-02-01 06:28:00,
2013-02-01 00:30:00,3.8,-1.0,30.34,NNW,335,4.0,6.0,80,0.00,,,0.00,Wunderground v.1.15,2013-02-01 06:30:00,
2013-02-01 00:31:00,3.8,-1.0,30.35,WNW,297,4.0,6.0,80,0.00,,,0.00,Wunderground v.1.15,2013-02-01 06:31:00,
2013-02-01 00:34:00,3.8,-0.7,30.35,West,273,4.0,6.0,81,0.00,,,0.00,Wunderground v.1.15,2013-02-01 06:34:00,
2013-02-01 00:35:00,3.9,-0.6,30.35,WSW,238,4.0,6.0,81,0.00,,,0.00,Wunderground v.1.15,2013-02-01 06:35:00,
2013-02-01 00:36:00,3.9,-0.6,30.35,West,277,4.0,6.0,81,0.00,,,0.00,Wunderground v.1.15,2013-02-01 06:36:00,
2013-02-01 00:39:00,3.8,-1.0,30.35,WNW,288,4.0,4.0,80,0.00,,,0.00,Wunderground v.1.15,2013-02-01 06:39:00,
2013-02-01 00:41:00,3.8,-1.3,30.35,West,277,4.0,6.0,79,0.00,,,0.00,Wunderground v.1.15,2013-02-01 06:41:00,
2013-02-01 00:42:00,3.8,-1.5,30.35,WNW,295,4.0,6.0,78,0.00,,,0.00,Wunderground v.1.15,2013-02-01 06:42:00,
2013-02-01 00:44:00,3.8,-1.5,30.36,NW,304,5.0,6.0,78,0.00,,,0.00,Wunderground v.1.15,2013-02-01 06:44:00,
2013-02-01 00:47:00,3.7,-1.6,30.36,NNW,338,5.0,6.0,78,0.00,,,0.00,Wunderground v.1.15,2013-02-01 06:47:00,
2013-02-01 00:48:00,3.7,-1.6,30.36,WNW,301,5.0,6.0,78,0.00,,,0.00,Wunderground v.1.15,2013-02-01 06:48:00,
2013-02-01 00:49:00,3.7,-1.6,30.36,West,271,5.0,5.0,78,0.00,,,0.00,Wunderground v.1.15,2013-02-01 06:49:00,
2013-02-01 00:50:00,3.7,-1.6,30.36,West,281,5.0,5.0,78,0.00,,,0.00,Wunderground v.1.15,2013-02-01 06:50:00,
2013-02-01 00:52:00,3.7,-1.9,30.36,WNW,302,4.0,5.0,77,0.00,,,0.00,Wunderground v.1.15,2013-02-01 06:52:00,
2013-02-01 00:55:00,3.6,-2.0,30.36,NW,316,4.0,6.0,77,0.00,,,0.00,Wunderground v.1.15,2013-02-01 06:55:00,
2013-02-01 00:57:00,3.6,-2.0,30.36,WNW,290,4.0,6.0,77,0.00,,,0.00,Wunderground v.1.15,2013-02-01 06:57:00,
2013-02-01 00:58:00,3.6,-2.0,30.36,WNW,288,4.0,6.0,77,0.00,,,0.00,Wunderground v.1.15,2013-02-01 06:58:00,
2013-02-01 01:00:00,3.6,-2.0,30.36,NW,319,4.0,4.0,77,0.00,,,0.00,Wunderground v.1.15,2013-02-01 07:00:00,
2013-02-01 01:04:00,3.5,-2.1,30.36,NW,304,4.0,6.0,77,0.00,,,0.00,Wunderground v.1.15,2013-02-01 07:04:00,
2013-02-01 01:06:00,3.5,-2.1,30.36,WNW,285,4.0,6.0,77,0.00,,,0.00,Wunderground v.1.15,2013-02-01 07:06:00,
2013-02-01 01:07:00,3.5,-2.1,30.36,WNW,301,4.0,6.0,77,0.00,,,0.00,Wunderground v.1.15,2013-02-01 07:07:00,
2013-02-01 01:09:00,3.5,-2.1,30.36,WNW,297,4.0,4.0,77,0.00,,,0.00,Wunderground v.1.15,2013-02-01 07:09:00,
2013-02-01 01:11:00,3.5,-2.1,30.36,NW,306,4.0,4.0,77,0.00,,,0.00,Wunderground v.1.15,2013-02-01 07:11:00,
2013-02-01 01:12:00,3.5,-2.1,30.36,WNW,285,4.0,6.0,77,0.00,,,0.00,Wunderground v.1.15,2013-02-01 07:12:00,
2013-02-01 01:15:00,3.5,-2.1,30.36,WNW,294,4.0,9.0,77,0.00,,,0.00,Wunderground v.1.15,2013-02-01 07:15:00,
2013-02-01 01:17:00,3.5,-2.1,30.36,WNW,293,4.0,9.0,77,0.00,,,0.00,Wunderground v.1.15,2013-02-01 07:17:00,
2013-02-01 01:18:00,3.5,-2.1,30.36,WNW,301,4.0,9.0,77,0.00,,,0.00,Wunderground v.1.15,2013-02-01 07:18:00,
2013-02-01 01:19:00,3.5,-2.1,30.36,West,276,4.0,5.0,77,0.00,,,0.00,Wunderground v.1.15,2013-02-01 07:19:00,
2013-02-01 01:23:00,3.5,-2.1,30.36,WNW,290,4.0,7.0,77,0.00,,,0.00,Wunderground v.1.15,2013-02-01 07:23:00,
2013-02-01 01:24:00,3.5,-2.1,30.36,NW,304,4.0,7.0,77,0.00,,,0.00,Wunderground v.1.15,2013-02-01 07:24:00,
2013-02-01 01:25:00,3.5,-2.1,30.36,WNW,293,4.0,7.0,77,0.00,,,0.00,Wunderground v.1.15,2013-02-01 07:25:00,
2013-02-01 01:28:00,3.5,-2.1,30.36,WNW,288,4.0,7.0,77,0.00,,,0.00,Wunderground v.1.15,2013-02-01 07:28:00,
2013-02-01 01:32:00,3.5,-1.8,30.36,NW,305,4.0,4.0,78,0.00,,,0.00,Wunderground v.1.15,2013-02-01 07:32:00,
2013-02-01 01:33:00,3.5,-1.8,30.37,NW,319,4.0,4.0,78,0.00,,,0.00,Wunderground v.1.15,2013-02-01 07:33:00,
2013-02-01 01:34:00,3.5,-1.8,30.37,West,281,3.0,4.0,78,0.00,,,0.00,Wunderground v.1.15,2013-02-01 07:34:00,
2013-02-01 01:35:00,3.5,-1.8,30.37,West,281,3.0,4.0,78,0.00,,,0.00,Wunderground v.1.15,2013-02-01 07:35:00,
2013-02-01 01:37:00,3.4,-1.9,30.37,WNW,302,4.0,5.0,78,0.00,,,0.00,Wunderground v.1.15,2013-02-01 07:37:00,
2013-02-01 01:39:00,3.4,-1.9,30.37,WNW,301,3.0,3.0,78,0.00,,,0.00,Wunderground v.1.15,2013-02-01 07:39:00,
2013-02-01 01:40:00,3.4,-1.9,30.37,NW,326,4.0,5.0,78,0.00,,,0.00,Wunderground v.1.15,2013-02-01 07:40:00,
2013-02-01 01:42:00,3.4,-1.7,30.37,West,277,4.0,5.0,79,0.00,,,0.00,Wunderground v.1.15,2013-02-01 07:42:00,
2013-02-01 01:45:00,3.4,-1.7,30.37,WNW,301,5.0,11.0,79,0.00,,,0.00,Wunderground v.1.15,2013-02-01 07:45:00,
2013-02-01 01:46:00,3.4,-1.9,30.37,WNW,301,5.0,11.0,78,0.00,,,0.00,Wunderground v.1.15,2013-02-01 07:46:00,
2013-02-01 01:47:00,3.3,-2.3,30.38,West,276,5.0,11.0,77,0.00,,,0.00,Wunderground v.1.15,2013-02-01 07:47:00,
2013-02-01 01:48:00,3.3,-2.6,30.38,West,269,5.0,11.0,76,0.00,,,0.00,Wunderground v.1.15,2013-02-01 07:48:00,
2013-02-01 01:51:00,3.2,-2.7,30.38,NW,306,5.0,6.0,76,0.00,,,0.00,Wunderground v.1.15,2013-02-01 07:51:00,
2013-02-01 01:56:00,3.2,-2.7,30.38,WNW,284,5.0,6.0,76,0.00,,,0.00,Wunderground v.1.15,2013-02-01 07:56:00,
2013-02-01 01:58:00,3.3,-2.6,30.38,WNW,301,4.0,6.0,76,0.00,,,0.00,Wunderground v.1.15,2013-02-01 07:58:00,
2013-02-01 01:59:00,3.2,-2.7,30.38,WNW,293,4.0,6.0,76,0.00,,,0.00,Wunderground v.1.15,2013-02-01 07:59:00,
2013-02-01 02:02:00,3.2,-2.7,30.38,West,270,3.0,4.0,76,0.00,,,0.00,Wunderground v.1.15,2013-02-01 08:02:00,
2013-02-01 02:03:00,3.2,-2.7,30.38,WNW,293,4.0,6.0,76,0.00,,,0.00,Wunderground v.1.15,2013-02-01 08:03:00,
2013-02-01 02:04:00,3.1,-2.8,30.38,West,277,4.0,6.0,76,0.00,,,0.00,Wunderground v.1.15,2013-02-01 08:04:00,
2013-02-01 02:05:00,3.2,-2.7,30.39,NW,314,4.0,6.0,76,0.00,,,0.00,Wunderground v.1.15,2013-02-01 08:05:00,
2013-02-01 02:08:00,3.2,-2.7,30.39,WNW,295,5.0,6.0,76,0.00,,,0.00,Wunderground v.1.15,2013-02-01 08:08:00,
2013-02-01 02:09:00,3.2,-2.7,30.39,WSW,243,5.0,6.0,76,0.00,,,0.00,Wunderground v.1.15,2013-02-01 08:09:00,
2013-02-01 02:13:00,3.1,-2.8,30.39,WNW,289,5.0,8.0,76,0.00,,,0.00,Wunderground v.1.15,2013-02-01 08:13:00,
2013-02-01 02:15:00,3.0,-3.1,30.39,WNW,289,5.0,10.0,75,0.00,,,0.00,Wunderground v.1.15,2013-02-01 08:15:00,
2013-02-01 02:18:00,3.0,-3.1,30.39,West,274,5.0,10.0,75,0.00,,,0.00,Wunderground v.1.15,2013-02-01 08:18:00,
2013-02-01 02:19:00,3.0,-3.1,30.39,West,264,5.0,10.0,75,0.00,,,0.00,Wunderground v.1.15,2013-02-01 08:19:00,
2013-02-01 02:21:00,3.0,-3.1,30.39,NW,311,5.0,5.0,75,0.00,,,0.00,Wunderground v.1.15,2013-02-01 08:21:00,
2013-02-01 02:23:00,3.0,-3.1,30.39,NW,314,5.0,8.0,75,0.00,,,0.00,Wunderground v.1.15,2013-02-01 08:23:00,
2013-02-01 02:24:00,3.0,-2.9,30.39,West,274,4.0,8.0,76,0.00,,,0.00,Wunderground v.1.15,2013-02-01 08:24:00,
2013-02-01 02:28:00,3.0,-2.9,30.39,West,280,4.0,8.0,76,0.00,,,0.00,Wunderground v.1.15,2013-02-01 08:28:00,
2013-02-01 02:29:00,3.0,-2.9,30.39,WNW,291,4.0,8.0,76,0.00,,,0.00,Wunderground v.1.15,2013-02-01 08:29:00,
2013-02-01 02:30:00,3.0,-2.9,30.40,WSW,250,4.0,7.0,76,0.00,,,0.00,Wunderground v.1.15,2013-02-01 08:30:00,
2013-02-01 02:33:00,3.0,-2.9,30.39,WNW,284,4.0,7.0,76,0.00,,,0.00,Wunderground v.1.15,2013-02-01 08:33:00,
2013-02-01 02:34:00,3.0,-2.9,30.39,WNW,293,4.0,7.0,76,0.00,,,0.00,Wunderground v.1.15,2013-02-01 08:34:00,
2013-02-01 02:36:00,3.0,-2.9,30.39,West,277,4.0,7.0,76,0.00,,,0.00,Wunderground v.1.15,2013-02-01 08:36:00,
2013-02-01 02:37:00,2.9,-3.0,30.39,West,278,5.0,7.0,76,0.00,,,0.00,Wunderground v.1.15,2013-02-01 08:37:00,
2013-02-01 02:39:00,2.9,-3.0,30.39,WNW,301,4.0,7.0,76,0.00,,,0.00,Wunderground v.1.15,2013-02-01 08:39:00,
2013-02-01 02:41:00,2.9,-3.0,30.40,West,274,5.0,5.0,76,0.00,,,0.00,Wunderground v.1.15,2013-02-01 08:41:00,
2013-02-01 02:43:00,2.9,-3.0,30.40,WNW,302,4.0,5.0,76,0.00,,,0.00,Wunderground v.1.15,2013-02-01 08:43:00,
2013-02-01 02:45:00,2.9,-3.0,30.40,West,270,4.0,5.0,76,0.00,,,0.00,Wunderground v.1.15,2013-02-01 08:45:00,
2013-02-01 02:46:00,2.9,-3.0,30.40,NW,305,4.0,5.0,76,0.00,,,0.00,Wunderground v.1.15,2013-02-01 08:46:00,
2013-02-01 02:48:00,2.9,-3.0,30.40,NW,323,5.0,8.0,76,0.00,,,0.00,Wunderground v.1.15,2013-02-01 08:48:00,
2013-02-01 02:49:00,2.9,-3.0,30.40,WNW,301,5.0,8.0,76,0.00,,,0.00,Wunderground v.1.15,2013-02-01 08:49:00,
2013-02-01 02:54:00,2.9,-3.0,30.40,West,281,5.0,10.0,76,0.00,,,0.00,Wunderground v.1.15,2013-02-01 08:54:00,
2013-02-01 02:55:00,2.8,-3.1,30.40,West,280,5.0,10.0,76,0.00,,,0.00,Wunderground v.1.15,2013-02-01 08:55:00,
2013-02-01 03:00:00,2.9,-3.0,30.40,WNW,297,4.0,5.0,76,0.00,,,0.00,Wunderground v.1.15,2013-02-01 09:00:00,
2013-02-01 03:02:00,2.8,-3.1,30.40,WSW,250,5.0,8.0,76,0.00,,,0.00,Wunderground v.1.15,2013-02-01 09:02:00,
2013-02-01 03:05:00,2.8,-3.1,30.40,WNW,297,4.0,8.0,76,0.00,,,0.00,Wunderground v.1.15,2013-02-01 09:05:00,
2013-02-01 03:07:00,2.8,-3.1,30.40,WNW,287,4.0,11.0,76,0.00,,,0.00,Wunderground v.1.15,2013-02-01 09:07:00,
2013-02-01 03:09:00,2.8,-3.1,30.40,WNW,283,4.0,5.0,76,0.00,,,0.00,Wunderground v.1.15,2013-02-01 09:09:00,
2013-02-01 03:12:00,2.8,-3.1,30.40,NW,304,4.0,5.0,76,0.00,,,0.00,Wunderground v.1.15,2013-02-01 09:12:00,
2013-02-01 03:13:00,2.8,-3.1,30.40,West,275,4.0,6.0,76,0.00,,,0.00,Wunderground v.1.15,2013-02-01 09:13:00,
2013-02-01 03:15:00,2.8,-3.1,30.40,West,269,4.0,6.0,76,0.00,,,0.00,Wunderground v.1.15,2013-02-01 09:15:00,
2013-02-01 03:16:00,2.8,-3.1,30.40,WNW,301,4.0,6.0,76,0.00,,,0.00,Wunderground v.1.15,2013-02-01 09:16:00,
2013-02-01 03:17:00,2.8,-2.8,30.39,WNW,303,4.0,6.0,77,0.00,,,0.00,Wunderground v.1.15,2013-02-01 09:17:00,
2013-02-01 03:18:00,2.8,-2.8,30.39,West,271,4.0,6.0,77,0.00,,,0.00,Wunderground v.1.15,2013-02-01 09:18:00,
2013-02-01 03:21:00,2.8,-3.1,30.39,WNW,297,4.0,4.0,76,0.00,,,0.00,Wunderground v.1.15,2013-02-01 09:21:00,
2013-02-01 03:22:00,2.8,-3.1,30.39,WNW,290,4.0,7.0,76,0.00,,,0.00,Wunderground v.1.15,2013-02-01 09:22:00,
2013-02-01 03:27:00,2.8,-3.1,30.39,NNE,20,4.0,7.0,76,0.00,,,0.00,Wunderground v.1.15,2013-02-01 09:27:00,
2013-02-01 03:28:00,2.8,-2.8,30.39,NW,309,4.0,7.0,77,0.00,,,0.00,Wunderground v.1.15,2013-02-01 09:28:00,
2013-02-01 03:30:00,2.8,-3.1,30.39,WNW,297,4.0,4.0,76,0.00,,,0.00,Wunderground v.1.15,2013-02-01 09:30:00,
2013-02-01 03:33:00,2.8,-3.1,30.39,West,279,4.0,4.0,76,0.00,,,0.00,Wunderground v.1.15,2013-02-01 09:33:00,
2013-02-01 03:36:00,2.8,-2.8,30.39,West,264,3.0,4.0,77,0.00,,,0.00,Wunderground v.1.15,2013-02-01 09:36:00,
2013-02-01 03:38:00,2.8,-2.8,30.39,NW,315,3.0,4.0,77,0.00,,,0.00,Wunderground v.1.15,2013-02-01 09:38:00,
2013-02-01 03:41:00,2.8,-2.8,30.39,WSW,246,3.0,5.0,77,0.00,,,0.00,Wunderground v.1.15,2013-02-01 09:41:00,
2013-02-01 03:43:00,2.7,-2.9,30.39,NW,306,3.0,5.0,77,0.00,,,0.00,Wunderground v.1.15,2013-02-01 09:43:00,
2013-02-01 03:45:00,2.7,-2.9,30.39,WNW,301,3.0,5.0,77,0.00,,,0.00,Wunderground v.1.15,2013-02-01 09:45:00,
2013-02-01 03:47:00,2.7,-2.9,30.39,West,266,2.0,5.0,77,0.00,,,0.00,Wunderground v.1.15,2013-02-01 09:47:00,
2013-02-01 03:48:00,2.7,-2.6,30.39,NW,319,3.0,5.0,78,0.00,,,0.00,Wunderground v.1.15,2013-02-01 09:48:00,
2013-02-01 03:51:00,2.6,-2.7,30.39,WNW,282,3.0,4.0,78,0.00,,,0.00,Wunderground v.1.15,2013-02-01 09:51:00,
2013-02-01 03:53:00,2.6,-2.7,30.39,West,263,3.0,4.0,78,0.00,,,0.00,Wunderground v.1.15,2013-02-01 09:53:00,
2013-02-01 03:56:00,2.6,-2.7,30.39,NW,314,3.0,4.0,78,0.00,,,0.00,Wunderground v.1.15,2013-02-01 09:56:00,
2013-02-01 03:57:00,2.6,-2.7,30.39,West,267,3.0,4.0,78,0.00,,,0.00,Wunderground v.1.15,2013-02-01 09:57:00,
2013-02-01 03:58:00,2.6,-2.7,30.40,WNW,284,3.0,4.0,78,0.00,,,0.00,Wunderground v.1.15,2013-02-01 09:58:00,
2013-02-01 04:00:00,2.6,-2.7,30.39,NW,314,3.0,3.0,78,0.00,,,0.00,Wunderground v.1.15,2013-02-01 10:00:00,
2013-02-01 04:03:00,2.5,-2.8,30.39,WNW,293,2.0,5.0,78,0.00,,,0.00,Wunderground v.1.15,2013-02-01 10:03:00,
2013-02-01 04:05:00,2.6,-2.7,30.40,WNW,297,2.0,5.0,78,0.00,,,0.00,Wunderground v.1.15,2013-02-01 10:05:00,
2013-02-01 04:07:00,2.5,-2.8,30.39,WNW,293,2.0,5.0,78,0.00,,,0.00,Wunderground v.1.15,2013-02-01 10:07:00,
2013-02-01 04:08:00,2.5,-2.8,30.39,WNW,283,2.0,5.0,78,0.00,,,0.00,Wunderground v.1.15,2013-02-01 10:08:00,
2013-02-01 04:10:00,2.5,-2.8,30.39,West,271,2.0,2.0,78,0.00,,,0.00,Wunderground v.1.15,2013-02-01 10:10:00,
2013-02-01 04:15:00,2.5,-2.5,30.39,WNW,297,2.0,3.0,79,0.00,,,0.00,Wunderground v.1.15,2013-02-01 10:15:00,
2013-02-01 04:16:00,2.5,-2.5,30.39,WNW,288,2.0,3.0,79,0.00,,,0.00,Wunderground v.1.15,2013-02-01 10:16:00,
2013-02-01 04:18:00,2.5,-2.5,30.39,NW,308,2.0,5.0,79,0.00,,,0.00,Wunderground v.1.15,2013-02-01 10:18:00,
2013-02-01 04:19:00,2.5,-2.5,30.40,WNW,284,2.0,5.0,79,0.00,,,0.00,Wunderground v.1.15,2013-02-01 10:19:00,
2013-02-01 04:20:00,2.5,-2.5,30.39,NNW,329,2.0,4.0,79,0.00,,,0.00,Wunderground v.1.15,2013-02-01 10:20:00,
2013-02-01 04:23:00,2.6,-2.4,30.40,NNW,333,2.0,4.0,79,0.00,,,0.00,Wunderground v.1.15,2013-02-01 10:23:00,
2013-02-01 04:25:00,2.6,-2.4,30.40,WNW,297,2.0,4.0,79,0.00,,,0.00,Wunderground v.1.15,2013-02-01 10:25:00,
2013-02-01 04:26:00,2.6,-2.2,30.40,West,281,2.0,4.0,80,0.00,,,0.00,Wunderground v.1.15,2013-02-01 10:26:00,
2013-02-01 04:27:00,2.6,-2.2,30.40,NW,310,2.0,4.0,80,0.00,,,0.00,Wunderground v.1.15,2013-02-01 10:27:00,
2013-02-01 04:29:00,2.5,-2.3,30.40,WNW,288,2.0,4.0,80,0.00,,,0.00,Wunderground v.1.15,2013-02-01 10:29:00,
2013-02-01 04:31:00,2.5,-2.3,30.40,WNW,302,2.0,3.0,80,0.00,,,0.00,Wunderground v.1.15,2013-02-01 10:31:00,
2013-02-01 04:33:00,2.5,-2.3,30.40,WNW,301,2.0,4.0,80,0.00,,,0.00,Wunderground v.1.15,2013-02-01 10:33:00,
2013-02-01 04:35:00,2.5,-2.3,30.40,NW,304,2.0,4.0,80,0.00,,,0.00,Wunderground v.1.15,2013-02-01 10:35:00,
2013-02-01 04:36:00,2.5,-2.3,30.40,West,269,2.0,4.0,80,0.00,,,0.00,Wunderground v.1.15,2013-02-01 10:36:00,
2013-02-01 04:40:00,2.5,-2.0,30.40,SW,226,2.0,5.0,81,0.00,,,0.00,Wunderground v.1.15,2013-02-01 10:40:00,
2013-02-01 04:41:00,2.5,-2.0,30.40,NW,315,2.0,5.0,81,0.00,,,0.00,Wunderground v.1.15,2013-02-01 10:41:00,
2013-02-01 04:43:00,2.5,-2.0,30.40,NW,315,2.0,5.0,81,0.00,,,0.00,Wunderground v.1.15,2013-02-01 10:43:00,
2013-02-01 04:45:00,2.5,-2.0,30.40,WNW,289,3.0,5.0,81,0.00,,,0.00,Wunderground v.1.15,2013-02-01 10:45:00,
2013-02-01 04:46:00,2.5,-2.0,30.40,WSW,254,3.0,5.0,81,0.00,,,0.00,Wunderground v.1.15,2013-02-01 10:46:00,
2013-02-01 04:48:00,2.5,-2.0,30.40,NW,305,3.0,5.0,81,0.00,,,0.00,Wunderground v.1.15,2013-02-01 10:48:00,
2013-02-01 04:49:00,2.5,-2.0,30.40,West,278,3.0,5.0,81,0.00,,,0.00,Wunderground v.1.15,2013-02-01 10:49:00,
2013-02-01 04:50:00,2.5,-2.0,30.40,WNW,295,3.0,3.0,81,0.00,,,0.00,Wunderground v.1.15,2013-02-01 10:50:00,
2013-02-01 04:51:00,2.5,-2.0,30.40,WSW,258,2.0,4.0,81,0.00,,,0.00,Wunderground v.1.15,2013-02-01 10:51:00,
2013-02-01 04:54:00,2.5,-2.0,30.40,WNW,284,3.0,5.0,81,0.00,,,0.00,Wunderground v.1.15,2013-02-01 10:54:00,
2013-02-01 04:55:00,2.5,-2.0,30.40,West,273,3.0,5.0,81,0.00,,,0.00,Wunderground v.1.15,2013-02-01 10:55:00,
2013-02-01 04:57:00,2.5,-2.0,30.40,NW,305,3.0,5.0,81,0.00,,,0.00,Wunderground v.1.15,2013-02-01 10:57:00,
2013-02-01 05:00:00,2.4,-2.1,30.41,NW,314,3.0,4.0,81,0.00,,,0.00,Wunderground v.1.15,2013-02-01 11:00:00,
2013-02-01 05:02:00,2.4,-2.1,30.41,WNW,302,3.0,4.0,81,0.00,,,0.00,Wunderground v.1.15,2013-02-01 11:02:00,
2013-02-01 05:03:00,2.5,-2.0,30.41,WNW,284,3.0,4.0,81,0.00,,,0.00,Wunderground v.1.15,2013-02-01 11:03:00,
2013-02-01 05:04:00,2.5,-2.0,30.41,WNW,301,3.0,4.0,81,0.00,,,0.00,Wunderground v.1.15,2013-02-01 11:04:00,
2013-02-01 05:08:00,2.5,-2.0,30.41,WNW,289,2.0,4.0,81,0.00,,,0.00,Wunderground v.1.15,2013-02-01 11:08:00,
2013-02-01 05:10:00,2.5,-2.0,30.41,North,6,2.0,2.0,81,0.00,,,0.00,Wunderground v.1.15,2013-02-01 11:10:00,
2013-02-01 05:11:00,2.4,-2.1,30.41,NW,312,2.0,2.0,81,0.00,,,0.00,Wunderground v.1.15,2013-02-01 11:11:00,
2013-02-01 05:13:00,2.4,-2.1,30.41,NW,305,2.0,2.0,81,0.00,,,0.00,Wunderground v.1.15,2013-02-01 11:13:00,
2013-02-01 05:17:00,2.4,-2.1,30.41,WNW,284,3.0,5.0,81,0.00,,,0.00,Wunderground v.1.15,2013-02-01 11:17:00,
2013-02-01 05:19:00,2.4,-2.1,30.41,WSW,250,3.0,5.0,81,0.00,,,0.00,Wunderground v.1.15,2013-02-01 11:19:00,
2013-02-01 05:20:00,2.4,-2.1,30.41,NW,309,3.0,3.0,81,0.00,,,0.00,Wunderground v.1.15,2013-02-01 11:20:00,
2013-02-01 05:23:00,2.3,-2.5,30.41,West,278,3.0,6.0,80,0.00,,,0.00,Wunderground v.1.15,2013-02-01 11:23:00,
2013-02-01 05:24:00,2.3,-2.5,30.41,WNW,298,3.0,6.0,80,0.00,,,0.00,Wunderground v.1.15,2013-02-01 11:24:00,
2013-02-01 05:25:00,2.3,-2.5,30.41,West,259,3.0,6.0,80,0.00,,,0.00,Wunderground v.1.15,2013-02-01 11:25:00,
2013-02-01 05:29:00,2.2,-2.6,30.41,NW,310,3.0,6.0,80,0.00,,,0.00,Wunderground v.1.15,2013-02-01 11:29:00,
2013-02-01 05:30:00,2.2,-2.3,30.41,WNW,298,3.0,3.0,81,0.00,,,0.00,Wunderground v.1.15,2013-02-01 11:30:00,
2013-02-01 05:33:00,2.2,-2.3,30.41,West,278,3.0,3.0,81,0.00,,,0.00,Wunderground v.1.15,2013-02-01 11:33:00,
2013-02-01 05:34:00,2.2,-2.3,30.41,WNW,295,2.0,3.0,81,0.00,,,0.00,Wunderground v.1.15,2013-02-01 11:34:00,
2013-02-01 05:35:00,2.2,-2.3,30.41,NW,311,2.0,3.0,81,0.00,,,0.00,Wunderground v.1.15,2013-02-01 11:35:00,
2013-02-01 05:36:00,2.1,-2.7,30.41,West,274,2.0,5.0,80,0.00,,,0.00,Wunderground v.1.15,2013-02-01 11:36:00,
2013-02-01 05:40:00,2.0,-2.8,30.41,West,265,2.0,3.0,80,0.00,,,0.00,Wunderground v.1.15,2013-02-01 11:40:00,
2013-02-01 05:41:00,2.0,-2.8,30.42,West,277,2.0,4.0,80,0.00,,,0.00,Wunderground v.1.15,2013-02-01 11:41:00,
2013-02-01 05:42:00,2.1,-2.7,30.41,WNW,285,2.0,4.0,80,0.00,,,0.00,Wunderground v.1.15,2013-02-01 11:42:00,
2013-02-01 05:44:00,2.0,-2.8,30.41,NW,314,2.0,4.0,80,0.00,,,0.00,Wunderground v.1.15,2013-02-01 11:44:00,
2013-02-01 05:45:00,2.0,-2.8,30.41,West,277,2.0,4.0,80,0.00,,,0.00,Wunderground v.1.15,2013-02-01 11:45:00,
2013-02-01 05:48:00,1.9,-2.8,30.42,WNW,285,2.0,4.0,80,0.00,,,0.00,Wunderground v.1.15,2013-02-01 11:48:00,
2013-02-01 05:50:00,1.9,-2.8,30.42,West,280,2.0,3.0,80,0.00,,,0.00,Wunderground v.1.15,2013-02-01 11:50:00,
2013-02-01 05:51:00,1.8,-2.9,30.42,NW,305,2.0,3.0,80,0.00,,,0.00,Wunderground v.1.15,2013-02-01 11:51:00,
2013-02-01 05:52:00,1.8,-2.9,30.42,WNW,291,2.0,3.0,80,0.00,,,0.00,Wunderground v.1.15,2013-02-01 11:52:00,
2013-02-01 05:53:00,1.9,-2.8,30.42,WNW,294,3.0,3.0,80,0.00,,,0.00,Wunderground v.1.15,2013-02-01 11:53:00,
2013-02-01 05:57:00,1.7,-3.3,30.42,WNW,291,3.0,6.0,79,0.00,,,0.00,Wunderground v.1.15,2013-02-01 11:57:00,
2013-02-01 05:58:00,1.7,-3.3,30.42,WNW,284,3.0,6.0,79,0.00,,,0.00,Wunderground v.1.15,2013-02-01 11:58:00,
2013-02-01 05:59:00,1.7,-3.3,30.42,WNW,297,3.0,6.0,79,0.00,,,0.00,Wunderground v.1.15,2013-02-01 11:59:00,
2013-02-01 06:00:00,1.7,-3.3,30.42,WSW,246,3.0,4.0,79,0.00,,,0.00,Wunderground v.1.15,2013-02-01 12:00:00,
2013-02-01 06:03:00,1.7,-3.3,30.42,WNW,287,3.0,4.0,79,0.00,,,0.00,Wunderground v.1.15,2013-02-01 12:03:00,
2013-02-01 06:06:00,1.6,-3.4,30.42,WNW,286,3.0,5.0,79,0.00,,,0.00,Wunderground v.1.15,2013-02-01 12:06:00,
2013-02-01 06:07:00,1.6,-3.4,30.42,WNW,293,3.0,5.0,79,0.00,,,0.00,Wunderground v.1.15,2013-02-01 12:07:00,
2013-02-01 06:10:00,1.6,-3.4,30.42,WNW,297,3.0,4.0,79,0.00,,,0.00,Wunderground v.1.15,2013-02-01 12:10:00,
2013-02-01 06:11:00,1.6,-3.4,30.42,WNW,283,3.0,4.0,79,0.00,,,0.00,Wunderground v.1.15,2013-02-01 12:11:00,
2013-02-01 06:12:00,1.6,-3.4,30.42,West,281,3.0,4.0,79,0.00,,,0.00,Wunderground v.1.15,2013-02-01 12:12:00,
2013-02-01 06:13:00,1.6,-3.4,30.43,NW,305,3.0,4.0,79,0.00,,,0.00,Wunderground v.1.15,2013-02-01 12:13:00,
2013-02-01 06:15:00,1.6,-3.4,30.43,WNW,287,3.0,5.0,79,0.00,,,0.00,Wunderground v.1.15,2013-02-01 12:15:00,
2013-02-01 06:16:00,1.5,-3.5,30.43,NW,304,3.0,5.0,79,0.00,,,0.00,Wunderground v.1.15,2013-02-01 12:16:00,
2013-02-01 06:18:00,1.5,-3.5,30.43,WNW,283,3.0,10.0,79,0.00,,,0.00,Wunderground v.1.15,2013-02-01 12:18:00,
2013-02-01 06:19:00,1.5,-3.5,30.43,WNW,296,4.0,4.0,79,0.00,,,0.00,Wunderground v.1.15,2013-02-01 12:19:00,
2013-02-01 06:21:00,1.5,-3.5,30.43,WNW,287,4.0,4.0,79,0.00,,,0.00,Wunderground v.1.15,2013-02-01 12:21:00,
2013-02-01 06:23:00,1.4,-3.6,30.43,WNW,301,4.0,4.0,79,0.00,,,0.00,Wunderground v.1.15,2013-02-01 12:23:00,
2013-02-01 06:24:00,1.4,-3.6,30.44,WNW,282,4.0,4.0,79,0.00,,,0.00,Wunderground v.1.15,2013-02-01 12:24:00,
2013-02-01 06:27:00,1.4,-3.6,30.43,WNW,284,4.0,6.0,79,0.00,,,0.00,Wunderground v.1.15,2013-02-01 12:27:00,
2013-02-01 06:28:00,1.4,-3.6,30.43,WNW,285,3.0,6.0,79,0.00,,,0.00,Wunderground v.1.15,2013-02-01 12:28:00,
2013-02-01 06:29:00,1.4,-3.6,30.43,WNW,293,3.0,3.0,79,0.00,,,0.00,Wunderground v.1.15,2013-02-01 12:29:00,
2013-02-01 06:32:00,1.3,-3.7,30.43,WNW,293,2.0,3.0,79,0.00,,,0.00,Wunderground v.1.15,2013-02-01 12:32:00,
2013-02-01 06:33:00,1.3,-3.7,30.43,West,266,2.0,3.0,79,0.00,,,0.00,Wunderground v.1.15,2013-02-01 12:33:00,
2013-02-01 06:34:00,1.3,-3.7,30.43,West,263,2.0,8.0,79,0.00,,,0.00,Wunderground v.1.15,2013-02-01 12:34:00,
2013-02-01 06:37:00,1.3,-3.7,30.43,West,276,3.0,8.0,79,0.00,,,0.00,Wunderground v.1.15,2013-02-01 12:37:00,
2013-02-01 06:40:00,1.3,-3.7,30.43,WNW,283,3.0,4.0,79,0.00,,,0.00,Wunderground v.1.15,2013-02-01 12:40:00,
2013-02-01 06:42:00,1.3,-3.7,30.43,NW,311,4.0,4.0,79,0.00,,,0.00,Wunderground v.1.15,2013-02-01 12:42:00,
2013-02-01 06:43:00,1.2,-3.5,30.43,West,278,4.0,5.0,80,0.00,,,0.00,Wunderground v.1.15,2013-02-01 12:43:00,
2013-02-01 06:46:00,1.2,-3.8,30.43,West,278,4.0,9.0,79,0.00,,,0.00,Wunderground v.1.15,2013-02-01 12:46:00,
2013-02-01 06:47:00,1.2,-3.5,30.43,WNW,295,4.0,9.0,80,0.00,,,0.00,Wunderground v.1.15,2013-02-01 12:47:00,
2013-02-01 06:49:00,1.2,-3.5,30.43,West,281,4.0,9.0,80,0.00,,,0.00,Wunderground v.1.15,2013-02-01 12:49:00,
2013-02-01 06:51:00,1.1,-3.9,30.43,WNW,284,4.0,4.0,79,0.00,,,0.00,Wunderground v.1.15,2013-02-01 12:51:00,
2013-02-01 06:52:00,1.1,-3.9,30.43,WNW,301,4.0,4.0,79,0.00,,,0.00,Wunderground v.1.15,2013-02-01 12:52:00,
2013-02-01 06:57:00,1.0,-3.7,30.43,WNW,297,2.0,4.0,80,0.00,,,0.00,Wunderground v.1.15,2013-02-01 12:57:00,
2013-02-01 06:58:00,1.0,-3.7,30.43,West,270,2.0,4.0,80,0.00,,,0.00,Wunderground v.1.15,2013-02-01 12:58:00,
2013-02-01 07:02:00,0.9,-3.8,30.43,WNW,284,2.0,4.0,80,0.00,,,0.00,Wunderground v.1.15,2013-02-01 13:02:00,
2013-02-01 07:03:00,0.9,-3.8,30.43,West,274,2.0,4.0,80,0.00,,,0.00,Wunderground v.1.15,2013-02-01 13:03:00,
2013-02-01 07:05:00,0.9,-4.1,30.44,West,273,3.0,4.0,79,0.00,,,0.00,Wunderground v.1.15,2013-02-01 13:05:00,
2013-02-01 07:06:00,0.9,-4.1,30.44,West,281,3.0,4.0,79,0.00,,,0.00,Wunderground v.1.15,2013-02-01 13:06:00,
2013-02-01 07:07:00,0.9,-4.1,30.44,WNW,293,3.0,4.0,79,0.00,,,0.00,Wunderground v.1.15,2013-02-01 13:07:00,
2013-02-01 07:11:00,0.9,-4.1,30.44,NW,310,2.0,3.0,79,0.00,,,0.00,Wunderground v.1.15,2013-02-01 13:11:00,
2013-02-01 07:13:00,0.8,-4.2,30.44,WNW,295,2.0,3.0,79,0.00,,,0.00,Wunderground v.1.15,2013-02-01 13:13:00,
2013-02-01 07:14:00,0.8,-4.2,30.43,West,264,2.0,3.0,79,0.00,,,0.00,Wunderground v.1.15,2013-02-01 13:14:00,
2013-02-01 07:17:00,0.7,-4.3,30.44,WNW,295,2.0,5.0,79,0.00,,,0.00,Wunderground v.1.15,2013-02-01 13:17:00,
2013-02-01 07:19:00,0.7,-4.3,30.44,West,276,2.0,5.0,79,0.00,,,0.00,Wunderground v.1.15,2013-02-01 13:19:00,
2013-02-01 07:20:00,0.7,-4.3,30.44,WNW,287,2.0,2.0,79,0.00,,,0.00,Wunderground v.1.15,2013-02-01 13:20:00,
2013-02-01 07:25:00,0.7,-4.3,30.44,WNW,297,2.0,2.0,79,0.00,,,0.00,Wunderground v.1.15,2013-02-01 13:25:00,
2013-02-01 07:26:00,0.7,-4.3,30.44,West,278,1.0,2.0,79,0.00,,,0.00,Wunderground v.1.15,2013-02-01 13:26:00,
2013-02-01 07:28:00,0.8,-4.2,30.44,NW,316,1.0,2.0,79,0.00,,,0.00,Wunderground v.1.15,2013-02-01 13:28:00,
2013-02-01 07:31:00,0.8,-4.2,30.44,WNW,301,1.0,2.0,79,0.00,,,0.00,Wunderground v.1.15,2013-02-01 13:31:00,
2013-02-01 07:32:00,0.8,-4.2,30.44,WNW,298,1.0,2.0,79,0.00,,,0.00,Wunderground v.1.15,2013-02-01 13:32:00,
2013-02-01 07:33:00,0.8,-4.2,30.44,West,278,1.0,2.0,79,0.00,,,0.00,Wunderground v.1.15,2013-02-01 13:33:00,
2013-02-01 07:37:00,0.9,-4.1,30.44,WNW,287,2.0,6.0,79,0.00,,,0.00,Wunderground v.1.15,2013-02-01 13:37:00,
2013-02-01 07:39:00,1.0,-4.0,30.44,West,277,3.0,6.0,79,0.00,,,0.00,Wunderground v.1.15,2013-02-01 13:39:00,
2013-02-01 07:41:00,1.0,-4.0,30.45,WNW,291,3.0,5.0,79,0.00,,,0.00,Wunderground v.1.15,2013-02-01 13:41:00,
2013-02-01 07:42:00,1.0,-4.0,30.45,WNW,295,3.0,5.0,79,0.00,,,0.00,Wunderground v.1.15,2013-02-01 13:42:00,
2013-02-01 07:44:00,1.2,-3.8,30.45,West,273,3.0,5.0,79,0.00,,,0.00,Wunderground v.1.15,2013-02-01 13:44:00,
2013-02-01 07:46:00,1.2,-3.8,30.45,West,274,3.0,5.0,79,0.00,,,0.00,Wunderground v.1.15,2013-02-01 13:46:00,
2013-02-01 07:47:00,1.3,-3.7,30.45,WNW,295,3.0,5.0,79,0.00,,,0.00,Wunderground v.1.15,2013-02-01 13:47:00,
2013-02-01 07:48:00,1.3,-3.7,30.45,SW,226,3.0,5.0,79,0.00,,,0.00,Wunderground v.1.15,2013-02-01 13:48:00,
2013-02-01 07:52:00,1.3,-4.0,30.45,WNW,287,3.0,6.0,78,0.00,,,0.00,Wunderground v.1.15,2013-02-01 13:52:00,
2013-02-01 07:55:00,1.4,-3.9,30.45,West,264,3.0,6.0,78,0.00,,,0.00,Wunderground v.1.15,2013-02-01 13:55:00,
2013-02-01 07:57:00,1.5,-3.5,30.45,West,278,3.0,6.0,79,0.00,,,0.00,Wunderground v.1.15,2013-02-01 13:57:00,
2013-02-01 07:58:00,1.5,-3.5,30.45,West,280,3.0,6.0,79,0.00,,,0.00,Wunderground v.1.15,2013-02-01 13:58:00,
2013-02-01 08:04:00,1.8,-3.5,30.45,WNW,295,4.0,10.0,78,0.00,,,0.00,Wunderground v.1.15,2013-02-01 14:04:00,
2013-02-01 08:05:00,1.9,-3.4,30.46,West,261,5.0,10.0,78,0.00,,,0.00,Wunderground v.1.15,2013-02-01 14:05:00,
2013-02-01 08:06:00,1.9,-3.4,30.46,WSW,258,5.0,10.0,78,0.00,,,0.00,Wunderground v.1.15,2013-02-01 14:06:00,
2013-02-01 08:07:00,1.9,-3.4,30.46,WNW,288,6.0,10.0,78,0.00,,,0.00,Wunderground v.1.15,2013-02-01 14:07:00,
2013-02-01 08:09:00,1.9,-3.4,30.46,West,265,7.0,10.0,78,0.00,,,0.00,Wunderground v.1.15,2013-02-01 14:09:00,
2013-02-01 08:14:00,2.1,-3.2,30.46,West,277,6.0,7.0,78,0.00,,,0.00,Wunderground v.1.15,2013-02-01 14:14:00,
2013-02-01 08:15:00,2.2,-3.1,30.46,NW,325,5.0,7.0,78,0.00,,,0.00,Wunderground v.1.15,2013-02-01 14:15:00,
2013-02-01 08:16:00,2.3,-3.0,30.46,WNW,290,5.0,7.0,78,0.00,,,0.00,Wunderground v.1.15,2013-02-01 14:16:00,
2013-02-01 08:19:00,2.4,-3.2,30.46,WNW,290,4.0,6.0,77,0.00,,,0.00,Wunderground v.1.15,2013-02-01 14:19:00,
2013-02-01 08:20:00,2.5,-3.1,30.46,NW,305,4.0,8.0,77,0.00,,,0.00,Wunderground v.1.15,2013-02-01 14:20:00,
2013-02-01 08:21:00,2.5,-3.1,30.47,West,259,4.0,8.0,77,0.00,,,0.00,Wunderground v.1.15,2013-02-01 14:21:00,
2013-02-01 08:24:00,2.5,-3.3,30.46,WNW,302,5.0,8.0,76,0.00,,,0.00,Wunderground v.1.15,2013-02-01 14:24:00,
2013-02-01 08:25:00,2.5,-3.3,30.46,West,278,5.0,8.0,76,0.00,,,0.00,Wunderground v.1.15,2013-02-01 14:25:00,
2013-02-01 08:28:00,2.5,-3.3,30.46,West,278,5.0,8.0,76,0.00,,,0.00,Wunderground v.1.15,2013-02-01 14:28:00,
2013-02-01 08:31:00,2.7,-2.9,30.46,WNW,284,5.0,5.0,77,0.00,,,0.00,Wunderground v.1.15,2013-02-01 14:31:00,
2013-02-01 08:32:00,2.8,-2.8,30.46,West,278,4.0,5.0,77,0.00,,,0.00,Wunderground v.1.15,2013-02-01 14:32:00,
2013-02-01 08:34:00,2.8,-2.8,30.46,WSW,257,4.0,5.0,77,0.00,,,0.00,Wunderground v.1.15,2013-02-01 14:34:00,
2013-02-01 08:35:00,2.9,-2.7,30.46,WNW,302,3.0,5.0,77,0.00,,,0.00,Wunderground v.1.15,2013-02-01 14:35:00,
2013-02-01 08:37:00,2.9,-3.0,30.47,West,260,3.0,5.0,76,0.00,,,0.00,Wunderground v.1.15,2013-02-01 14:37:00,
2013-02-01 08:39:00,2.9,-2.7,30.46,WSW,252,3.0,9.0,77,0.00,,,0.00,Wunderground v.1.15,2013-02-01 14:39:00,
2013-02-01 08:40:00,2.8,-2.8,30.46,West,266,4.0,9.0,77,0.00,,,0.00,Wunderground v.1.15,2013-02-01 14:40:00,
2013-02-01 08:42:00,2.8,-2.8,30.46,WSW,249,5.0,9.0,77,0.00,,,0.00,Wunderground v.1.15,2013-02-01 14:42:00,
2013-02-01 08:43:00,2.8,-2.8,30.46,West,260,6.0,9.0,77,0.00,,,0.00,Wunderground v.1.15,2013-02-01 14:43:00,
2013-02-01 08:44:00,2.8,-2.8,30.46,West,260,6.0,9.0,77,0.00,,,0.00,Wunderground v.1.15,2013-02-01 14:44:00,
2013-02-01 08:48:00,2.9,-2.4,30.46,WSW,258,8.0,9.0,78,0.00,,,0.00,Wunderground v.1.15,2013-02-01 14:48:00,
2013-02-01 08:49:00,2.9,-2.4,30.47,West,264,8.0,10.0,78,0.00,,,0.00,Wunderground v.1.15,2013-02-01 14:49:00,
2013-02-01 08:50:00,2.9,-2.7,30.47,WSW,252,7.0,10.0,77,0.00,,,0.00,Wunderground v.1.15,2013-02-01 14:50:00,
2013-02-01 08:51:00,2.9,-2.7,30.47,WSW,256,8.0,11.0,77,0.00,,,0.00,Wunderground v.1.15,2013-02-01 14:51:00,
2013-02-01 08:53:00,3.0,-2.6,30.47,WNW,295,8.0,11.0,77,0.00,,,0.00,Wunderground v.1.15,2013-02-01 14:53:00,
2013-02-01 08:55:00,2.9,-3.0,30.47,West,262,8.0,13.0,76,0.00,,,0.00,Wunderground v.1.15,2013-02-01 14:55:00,
2013-02-01 09:00:00,3.0,-2.9,30.47,WSW,253,8.0,9.0,76,0.00,,,0.00,Wunderground v.1.15,2013-02-01 15:00:00,
2013-02-01 09:03:00,3.1,-2.8,30.47,West,270,8.0,9.0,76,0.00,,,0.00,Wunderground v.1.15,2013-02-01 15:03:00,
2013-02-01 09:05:00,3.4,-2.5,30.47,West,269,7.0,9.0,76,0.00,,,0.00,Wunderground v.1.15,2013-02-01 15:05:00,
2013-02-01 09:07:00,3.5,-2.7,30.47,WSW,255,7.0,13.0,75,0.00,,,0.00,Wunderground v.1.15,2013-02-01 15:07:00,
2013-02-01 09:09:00,3.4,-2.7,30.47,West,275,7.0,7.0,75,0.00,,,0.00,Wunderground v.1.15,2013-02-01 15:09:00,
2013-02-01 09:10:00,3.4,-3.0,30.47,West,260,7.0,9.0,74,0.00,,,0.00,Wunderground v.1.15,2013-02-01 15:10:00,
2013-02-01 09:12:00,3.4,-3.0,30.47,WNW,290,7.0,9.0,74,0.00,,,0.00,Wunderground v.1.15,2013-02-01 15:12:00,
2013-02-01 09:14:00,3.6,-2.6,30.47,West,266,8.0,10.0,75,0.00,,,0.00,Wunderground v.1.15,2013-02-01 15:14:00,
2013-02-01 09:17:00,3.5,-2.9,30.47,WSW,249,8.0,10.0,74,0.00,,,0.00,Wunderground v.1.15,2013-02-01 15:17:00,
2013-02-01 09:18:00,3.5,-2.9,30.47,West,278,7.0,10.0,74,0.00,,,0.00,Wunderground v.1.15,2013-02-01 15:18:00,
2013-02-01 09:23:00,3.8,-2.4,30.47,West,263,7.0,8.0,75,0.00,,,0.00,Wunderground v.1.15,2013-02-01 15:23:00,
2013-02-01 09:24:00,3.8,-2.4,30.47,NW,308,7.0,8.0,75,0.00,,,0.00,Wunderground v.1.15,2013-02-01 15:24:00,
2013-02-01 09:25:00,3.9,-2.3,30.47,West,266,7.0,8.0,75,0.00,,,0.00,Wunderground v.1.15,2013-02-01 15:25:00,
2013-02-01 09:29:00,3.8,-2.6,30.47,WSW,243,8.0,10.0,74,0.00,,,0.00,Wunderground v.1.15,2013-02-01 15:29:00,
2013-02-01 09:30:00,3.7,-2.7,30.47,West,270,8.0,8.0,74,0.00,,,0.00,Wunderground v.1.15,2013-02-01 15:30:00,
2013-02-01 09:31:00,3.8,-2.4,30.47,West,264,8.0,8.0,75,0.00,,,0.00,Wunderground v.1.15,2013-02-01 15:31:00,
2013-02-01 09:32:00,3.9,-2.0,30.47,West,280,8.0,8.0,76,0.00,,,0.00,Wunderground v.1.15,2013-02-01 15:32:00,
2013-02-01 09:36:00,3.9,-2.3,30.47,WSW,257,8.0,11.0,75,0.00,,,0.00,Wunderground v.1.15,2013-02-01 15:36:00,
2013-02-01 09:37:00,4.0,-1.9,30.47,West,278,8.0,11.0,76,0.00,,,0.00,Wunderground v.1.15,2013-02-01 15:37:00,
2013-02-01 09:38:00,4.0,-2.2,30.47,WNW,284,7.0,11.0,75,0.00,,,0.00,Wunderground v.1.15,2013-02-01 15:38:00,
2013-02-01 09:40:00,4.1,-2.1,30.47,WSW,252,7.0,10.0,75,0.00,,,0.00,Wunderground v.1.15,2013-02-01 15:40:00,
2013-02-01 09:41:00,4.2,-2.0,30.47,West,280,7.0,10.0,75,0.00,,,0.00,Wunderground v.1.15,2013-02-01 15:41:00,
2013-02-01 09:42:00,4.3,-1.9,30.47,WNW,290,7.0,10.0,75,0.00,,,0.00,Wunderground v.1.15,2013-02-01 15:42:00,
2013-02-01 09:43:00,4.4,-1.8,30.48,West,280,6.0,10.0,75,0.00,,,0.00,Wunderground v.1.15,2013-02-01 15:43:00,
2013-02-01 09:45:00,4.6,-1.6,30.47,WSW,238,6.0,10.0,75,0.00,,,0.00,Wunderground v.1.15,2013-02-01 15:45:00,
2013-02-01 09:48:00,4.7,-1.5,30.47,WSW,248,5.0,10.0,75,0.00,,,0.00,Wunderground v.1.15,2013-02-01 15:48:00,
2013-02-01 09:50:00,4.8,-1.4,30.47,WNW,290,5.0,5.0,75,0.00,,,0.00,Wunderground v.1.15,2013-02-01 15:50:00,
2013-02-01 09:52:00,5.0,-1.2,30.47,WNW,295,5.0,5.0,75,0.00,,,0.00,Wunderground v.1.15,2013-02-01 15:52:00,
2013-02-01 09:53:00,5.0,-1.2,30.47,WSW,240,5.0,5.0,75,0.00,,,0.00,Wunderground v.1.15,2013-02-01 15:53:00,
2013-02-01 09:55:00,5.0,-1.2,30.47,WSW,243,5.0,7.0,75,0.00,,,0.00,Wunderground v.1.15,2013-02-01 15:55:00,
2013-02-01 09:57:00,4.9,-1.6,30.47,WSW,257,6.0,8.0,74,0.00,,,0.00,Wunderground v.1.15,2013-02-01 15:57:00,
2013-02-01 10:00:00,4.8,-1.7,30.47,West,269,6.0,6.0,74,0.00,,,0.00,Wunderground v.1.15,2013-02-01 16:00:00,
2013-02-01 10:01:00,5.1,-1.1,30.47,West,281,6.0,6.0,75,0.00,,,0.00,Wunderground v.1.15,2013-02-01 16:01:00,
2013-02-01 10:03:00,5.4,-0.5,30.47,WSW,239,6.0,8.0,76,0.00,,,0.00,Wunderground v.1.15,2013-02-01 16:03:00,
2013-02-01 10:04:00,5.4,-0.5,30.47,WSW,248,6.0,8.0,76,0.00,,,0.00,Wunderground v.1.15,2013-02-01 16:04:00,
2013-02-01 10:06:00,5.2,-1.0,30.47,WSW,248,6.0,9.0,75,0.00,,,0.00,Wunderground v.1.15,2013-02-01 16:06:00,
2013-02-01 10:09:00,5.1,-1.1,30.47,West,274,6.0,6.0,75,0.00,,,0.00,Wunderground v.1.15,2013-02-01 16:09:00,
2013-02-01 10:10:00,5.2,-1.0,30.47,West,266,6.0,6.0,75,0.00,,,0.00,Wunderground v.1.15,2013-02-01 16:10:00,
2013-02-01 10:11:00,5.3,-0.9,30.47,WNW,288,6.0,6.0,75,0.00,,,0.00,Wunderground v.1.15,2013-02-01 16:11:00,
2013-02-01 10:15:00,5.5,-0.7,30.47,NW,321,6.0,6.0,75,0.00,,,0.00,Wunderground v.1.15,2013-02-01 16:15:00,
2013-02-01 10:17:00,5.7,-0.2,30.47,WNW,302,5.0,6.0,76,0.00,,,0.00,Wunderground v.1.15,2013-02-01 16:17:00,
2013-02-01 10:18:00,5.9,0.0,30.47,WNW,288,4.0,6.0,76,0.00,,,0.00,Wunderground v.1.15,2013-02-01 16:18:00,
2013-02-01 10:20:00,6.0,-0.2,30.47,WSW,253,4.0,5.0,75,0.00,,,0.00,Wunderground v.1.15,2013-02-01 16:20:00,
2013-02-01 10:21:00,6.1,-0.1,30.47,WNW,298,4.0,6.0,75,0.00,,,0.00,Wunderground v.1.15,2013-02-01 16:21:00,
2013-02-01 10:22:00,6.1,-0.1,30.47,West,280,4.0,6.0,75,0.00,,,0.00,Wunderground v.1.15,2013-02-01 16:22:00,
2013-02-01 10:26:00,6.2,0.3,30.47,West,270,5.0,10.0,76,0.00,,,0.00,Wunderground v.1.15,2013-02-01 16:26:00,
2013-02-01 10:27:00,6.3,0.3,30.47,WSW,248,5.0,10.0,76,0.00,,,0.00,Wunderground v.1.15,2013-02-01 16:27:00,
2013-02-01 10:30:00,6.4,0.2,30.47,WSW,249,6.0,11.0,75,0.00,,,0.00,Wunderground v.1.15,2013-02-01 16:30:00,
2013-02-01 10:32:00,6.2,-0.3,30.47,WSW,253,7.0,11.0,74,0.00,,,0.00,Wunderground v.1.15,2013-02-01 16:32:00,
2013-02-01 10:33:00,6.2,0.0,30.47,West,262,6.0,11.0,75,0.00,,,0.00,Wunderground v.1.15,2013-02-01 16:33:00,
2013-02-01 10:34:00,6.2,0.0,30.47,West,260,6.0,11.0,75,0.00,,,0.00,Wunderground v.1.15,2013-02-01 16:34:00,
2013-02-01 10:36:00,6.5,0.8,30.47,SW,235,7.0,11.0,77,0.00,,,0.00,Wunderground v.1.15,2013-02-01 16:36:00,
2013-02-01 10:39:00,6.5,0.5,30.47,SW,233,7.0,10.0,76,0.00,,,0.00,Wunderground v.1.15,2013-02-01 16:39:00,
2013-02-01 10:41:00,6.5,0.3,30.48,WSW,257,7.0,12.0,75,0.00,,,0.00,Wunderground v.1.15,2013-02-01 16:41:00,
2013-02-01 10:42:00,6.5,0.3,30.47,WSW,257,8.0,12.0,75,0.00,,,0.00,Wunderground v.1.15,2013-02-01 16:42:00,
2013-02-01 10:46:00,6.5,0.0,30.48,WSW,246,10.0,13.0,74,0.00,,,0.00,Wunderground v.1.15,2013-02-01 16:46:00,
2013-02-01 10:47:00,6.5,0.0,30.47,WSW,256,10.0,13.0,74,0.00,,,0.00,Wunderground v.1.15,2013-02-01 16:47:00,
2013-02-01 10:48:00,6.6,0.4,30.47,WSW,246,10.0,13.0,75,0.00,,,0.00,Wunderground v.1.15,2013-02-01 16:48:00,
2013-02-01 10:52:00,6.7,0.2,30.47,WSW,248,11.0,11.0,74,0.00,,,0.00,Wunderground v.1.15,2013-02-01 16:52:00,
2013-02-01 10:54:00,6.8,0.3,30.48,West,264,11.0,13.0,74,0.00,,,0.00,Wunderground v.1.15,2013-02-01 16:54:00,
2013-02-01 10:57:00,6.8,0.3,30.47,WSW,250,10.0,13.0,74,0.00,,,0.00,Wunderground v.1.15,2013-02-01 16:57:00,
2013-02-01 11:00:00,6.7,0.2,30.48,West,262,10.0,11.0,74,0.00,,,0.00,Wunderground v.1.15,2013-02-01 17:00:00,
2013-02-01 11:03:00,7.0,0.7,30.47,West,262,9.0,14.0,75,0.00,,,0.00,Wunderground v.1.15,2013-02-01 17:03:00,
2013-02-01 11:05:00,6.7,0.2,30.47,WSW,255,10.0,14.0,74,0.00,,,0.00,Wunderground v.1.15,2013-02-01 17:05:00,
2013-02-01 11:09:00,6.8,0.6,30.47,WSW,257,10.0,14.0,75,0.00,,,0.00,Wunderground v.1.15,2013-02-01 17:09:00,
2013-02-01 11:10:00,6.7,0.2,30.47,WSW,255,10.0,10.0,74,0.00,,,0.00,Wunderground v.1.15,2013-02-01 17:10:00,
2013-02-01 11:12:00,6.5,-0.3,30.47,West,270,10.0,10.0,73,0.00,,,0.00,Wunderground v.1.15,2013-02-01 17:12:00,
2013-02-01 11:14:00,6.5,0.0,30.47,SW,236,10.0,10.0,74,0.00,,,0.00,Wunderground v.1.15,2013-02-01 17:14:00,
2013-02-01 11:15:00,6.7,0.5,30.47,WSW,255,10.0,12.0,75,0.00,,,0.00,Wunderground v.1.15,2013-02-01 17:15:00,
2013-02-01 11:16:00,6.8,0.6,30.47,West,262,10.0,12.0,75,0.00,,,0.00,Wunderground v.1.15,2013-02-01 17:16:00,
2013-02-01 11:19:00,6.8,0.3,30.47,SW,226,10.0,12.0,74,0.00,,,0.00,Wunderground v.1.15,2013-02-01 17:19:00,
2013-02-01 11:20:00,6.9,0.4,30.47,WSW,243,9.0,9.0,74,0.00,,,0.00,Wunderground v.1.15,2013-02-01 17:20:00,
2013-02-01 11:24:00,7.4,1.1,30.47,West,281,9.0,10.0,75,0.00,,,0.00,Wunderground v.1.15,2013-02-01 17:24:00,
2013-02-01 11:25:00,7.6,1.0,30.47,WNW,292,8.0,10.0,74,0.00,,,0.00,Wunderground v.1.15,2013-02-01 17:25:00,
2013-02-01 11:28:00,7.7,0.8,30.47,WSW,249,7.0,10.0,73,0.00,,,0.00,Wunderground v.1.15,2013-02-01 17:28:00,
2013-02-01 11:31:00,8.0,1.4,30.47,SW,219,8.0,14.0,74,0.00,,,0.00,Wunderground v.1.15,2013-02-01 17:31:00,
2013-02-01 11:33:00,8.2,1.6,30.46,WSW,253,8.0,14.0,74,0.00,,,0.00,Wunderground v.1.15,2013-02-01 17:33:00,
2013-02-01 11:34:00,8.3,1.7,30.47,WSW,255,8.0,14.0,74,0.00,,,0.00,Wunderground v.1.15,2013-02-01 17:34:00,
2013-02-01 11:37:00,8.3,1.1,30.47,WNW,283,9.0,14.0,72,0.00,,,0.00,Wunderground v.1.15,2013-02-01 17:37:00,
2013-02-01 11:38:00,8.3,0.8,30.47,West,281,10.0,14.0,71,0.00,,,0.00,Wunderground v.1.15,2013-02-01 17:38:00,
2013-02-01 11:42:00,8.3,0.8,30.47,West,264,10.0,14.0,71,0.00,,,0.00,Wunderground v.1.15,2013-02-01 17:42:00,
2013-02-01 11:44:00,8.3,0.8,30.46,West,259,10.0,14.0,71,0.00,,,0.00,Wunderground v.1.15,2013-02-01 17:44:00,
2013-02-01 11:45:00,8.4,1.5,30.46,WSW,238,10.0,14.0,73,0.00,,,0.00,Wunderground v.1.15,2013-02-01 17:45:00,
2013-02-01 11:47:00,8.5,1.9,30.46,SW,232,10.0,14.0,74,0.00,,,0.00,Wunderground v.1.15,2013-02-01 17:47:00,
2013-02-01 11:52:00,8.8,2.2,30.46,SW,236,9.0,11.0,74,0.00,,,0.00,Wunderground v.1.15,2013-02-01 17:52:00,
2013-02-01 11:53:00,9.0,2.4,30.46,West,262,9.0,11.0,74,0.00,,,0.00,Wunderground v.1.15,2013-02-01 17:53:00,
2013-02-01 11:56:00,9.1,2.5,30.46,West,278,10.0,13.0,74,0.00,,,0.00,Wunderground v.1.15,2013-02-01 17:56:00,
2013-02-01 11:57:00,9.0,2.1,30.46,WSW,248,10.0,13.0,73,0.00,,,0.00,Wunderground v.1.15,2013-02-01 17:57:00,
2013-02-01 11:58:00,8.9,1.7,30.46,WSW,252,10.0,13.0,72,0.00,,,0.00,Wunderground v.1.15,2013-02-01 17:58:00,
2013-02-01 12:03:00,8.7,1.2,30.45,WSW,249,10.0,15.0,71,0.00,,,0.00,Wunderground v.1.15,2013-02-01 18:03:00,
2013-02-01 12:05:00,8.8,1.6,30.45,West,260,9.0,15.0,72,0.00,,,0.00,Wunderground v.1.15,2013-02-01 18:05:00,
2013-02-01 12:07:00,9.0,2.1,30.45,WSW,255,8.0,15.0,73,0.00,,,0.00,Wunderground v.1.15,2013-02-01 18:07:00,
2013-02-01 12:09:00,9.1,1.9,30.45,WSW,240,8.0,15.0,72,0.00,,,0.00,Wunderground v.1.15,2013-02-01 18:09:00,
2013-02-01 12:10:00,9.1,2.2,30.45,WNW,283,8.0,8.0,73,0.00,,,0.00,Wunderground v.1.15,2013-02-01 18:10:00,
2013-02-01 12:12:00,9.2,2.0,30.45,SW,232,7.0,11.0,72,0.00,,,0.00,Wunderground v.1.15,2013-02-01 18:12:00,
2013-02-01 12:13:00,9.3,2.4,30.45,SW,232,7.0,11.0,73,0.00,,,0.00,Wunderground v.1.15,2013-02-01 18:13:00,
2013-02-01 12:16:00,9.5,2.6,30.44,WSW,253,8.0,11.0,73,0.00,,,0.00,Wunderground v.1.15,2013-02-01 18:16:00,
2013-02-01 12:17:00,9.5,2.6,30.44,WSW,246,9.0,12.0,73,0.00,,,0.00,Wunderground v.1.15,2013-02-01 18:17:00,
2013-02-01 12:20:00,9.8,2.9,30.44,SW,232,9.0,10.0,73,0.00,,,0.00,Wunderground v.1.15,2013-02-01 18:20:00,
2013-02-01 12:23:00,9.8,2.6,30.44,WSW,248,9.0,10.0,72,0.00,,,0.00,Wunderground v.1.15,2013-02-01 18:23:00,
2013-02-01 12:24:00,9.8,2.9,30.44,WSW,248,10.0,10.0,73,0.00,,,0.00,Wunderground v.1.15,2013-02-01 18:24:00,
2013-02-01 12:25:00,9.8,2.6,30.44,SW,235,9.0,10.0,72,0.00,,,0.00,Wunderground v.1.15,2013-02-01 18:25:00,
2013-02-01 12:29:00,10.0,3.1,30.44,West,259,9.0,10.0,73,0.00,,,0.00,Wunderground v.1.15,2013-02-01 18:29:00,
2013-02-01 12:30:00,9.9,2.7,30.44,West,266,9.0,9.0,72,0.00,,,0.00,Wunderground v.1.15,2013-02-01 18:30:00,
2013-02-01 12:32:00,10.0,2.5,30.43,West,262,8.0,9.0,71,0.00,,,0.00,Wunderground v.1.15,2013-02-01 18:32:00,
2013-02-01 12:33:00,10.2,3.3,30.43,West,273,7.0,9.0,73,0.00,,,0.00,Wunderground v.1.15,2013-02-01 18:33:00,
2013-02-01 12:35:00,10.4,3.2,30.43,West,266,7.0,11.0,72,0.00,,,0.00,Wunderground v.1.15,2013-02-01 18:35:00,
2013-02-01 12:36:00,10.4,3.2,30.43,WNW,294,7.0,11.0,72,0.00,,,0.00,Wunderground v.1.15,2013-02-01 18:36:00,
2013-02-01 12:38:00,10.5,2.6,30.43,West,274,7.0,11.0,70,0.00,,,0.00,Wunderground v.1.15,2013-02-01 18:38:00,
2013-02-01 12:41:00,10.5,2.3,30.43,WSW,244,6.0,7.0,69,0.00,,,0.00,Wunderground v.1.15,2013-02-01 18:41:00,
2013-02-01 12:43:00,10.9,3.6,30.43,WSW,246,6.0,9.0,72,0.00,,,0.00,Wunderground v.1.15,2013-02-01 18:43:00,
2013-02-01 12:44:00,11.0,4.0,30.43,WSW,244,6.0,9.0,73,0.00,,,0.00,Wunderground v.1.15,2013-02-01 18:44:00,
2013-02-01 12:45:00,11.1,3.8,30.43,West,266,6.0,9.0,72,0.00,,,0.00,Wunderground v.1.15,2013-02-01 18:45:00,
2013-02-01 12:47:00,11.2,3.6,30.43,West,269,6.0,9.0,71,0.00,,,0.00,Wunderground v.1.15,2013-02-01 18:47:00,
2013-02-01 12:49:00,11.3,3.4,30.42,WSW,250,6.0,9.0,70,0.00,,,0.00,Wunderground v.1.15,2013-02-01 18:49:00,
2013-02-01 12:50:00,11.3,3.7,30.42,WSW,248,6.0,6.0,71,0.00,,,0.00,Wunderground v.1.15,2013-02-01 18:50:00,
2013-02-01 12:55:00,11.7,4.1,30.42,SW,232,6.0,12.0,71,0.00,,,0.00,Wunderground v.1.15,2013-02-01 18:55:00,
2013-02-01 12:56:00,11.7,3.8,30.42,SW,235,6.0,12.0,70,0.00,,,0.00,Wunderground v.1.15,2013-02-01 18:56:00,
2013-02-01 12:57:00,11.7,4.1,30.42,WSW,246,7.0,12.0,71,0.00,,,0.00,Wunderground v.1.15,2013-02-01 18:57:00,
2013-02-01 12:58:00,11.8,4.5,30.42,SW,225,7.0,12.0,72,0.00,,,0.00,Wunderground v.1.15,2013-02-01 18:58:00,
2013-02-01 13:02:00,11.8,3.9,30.42,WSW,240,8.0,9.0,70,0.00,,,0.00,Wunderground v.1.15,2013-02-01 19:02:00,
2013-02-01 13:03:00,11.8,3.9,30.42,WSW,252,8.0,9.0,70,0.00,,,0.00,Wunderground v.1.15,2013-02-01 19:03:00,
2013-02-01 13:04:00,11.8,3.9,30.42,SW,236,8.0,9.0,70,0.00,,,0.00,Wunderground v.1.15,2013-02-01 19:04:00,
2013-02-01 13:05:00,11.9,4.3,30.42,WSW,246,8.0,9.0,71,0.00,,,0.00,Wunderground v.1.15,2013-02-01 19:05:00,
2013-02-01 13:08:00,12.4,5.4,30.42,SSW,208,7.0,9.0,73,0.00,,,0.00,Wunderground v.1.15,2013-02-01 19:08:00,
2013-02-01 13:12:00,12.8,5.5,30.41,West,259,7.0,9.0,72,0.00,,,0.00,Wunderground v.1.15,2013-02-01 19:12:00,
2013-02-01 13:13:00,12.9,5.6,30.41,West,259,7.0,9.0,72,0.00,,,0.00,Wunderground v.1.15,2013-02-01 19:13:00,
2013-02-01 13:16:00,12.6,4.3,30.41,WSW,238,7.0,10.0,69,0.00,,,0.00,Wunderground v.1.15,2013-02-01 19:16:00,
2013-02-01 13:19:00,12.8,5.2,30.41,West,264,8.0,10.0,71,0.00,,,0.00,Wunderground v.1.15,2013-02-01 19:19:00,
2013-02-01 13:21:00,13.3,6.6,30.41,SW,227,8.0,10.0,74,0.00,,,0.00,Wunderground v.1.15,2013-02-01 19:21:00,
2013-02-01 13:22:00,13.3,6.3,30.41,SW,222,8.0,10.0,73,0.00,,,0.00,Wunderground v.1.15,2013-02-01 19:22:00,
2013-02-01 13:24:00,13.1,5.1,30.41,WSW,246,8.0,10.0,70,0.00,,,0.00,Wunderground v.1.15,2013-02-01 19:24:00,
2013-02-01 13:26:00,13.1,5.1,30.40,SSW,197,7.0,11.0,70,0.00,,,0.00,Wunderground v.1.15,2013-02-01 19:26:00,
2013-02-01 13:27:00,13.0,5.0,30.40,SW,228,8.0,11.0,70,0.00,,,0.00,Wunderground v.1.15,2013-02-01 19:27:00,
2013-02-01 13:31:00,13.2,5.6,30.40,WSW,252,7.0,7.0,71,0.00,,,0.00,Wunderground v.1.15,2013-02-01 19:31:00,
2013-02-01 13:35:00,13.4,5.4,30.40,West,270,7.0,7.0,70,0.00,,,0.00,Wunderground v.1.15,2013-02-01 19:35:00,
2013-02-01 13:36:00,13.6,5.9,30.40,West,271,6.0,7.0,71,0.00,,,0.00,Wunderground v.1.15,2013-02-01 19:36:00,
2013-02-01 13:40:00,13.6,5.3,30.40,WSW,255,6.0,11.0,69,0.00,,,0.00,Wunderground v.1.15,2013-02-01 19:40:00,
2013-02-01 13:43:00,13.5,5.2,30.40,SW,222,8.0,13.0,69,0.00,,,0.00,Wunderground v.1.15,2013-02-01 19:43:00,
2013-02-01 13:45:00,13.4,4.8,30.40,SW,232,9.0,13.0,68,0.00,,,0.00,Wunderground v.1.15,2013-02-01 19:45:00,
2013-02-01 13:48:00,13.6,5.9,30.40,WSW,243,9.0,13.0,71,0.00,,,0.00,Wunderground v.1.15,2013-02-01 19:48:00,
2013-02-01 13:52:00,13.9,5.9,30.39,WSW,243,9.0,10.0,70,0.00,,,0.00,Wunderground v.1.15,2013-02-01 19:52:00,
2013-02-01 13:53:00,13.9,5.6,30.39,WSW,252,8.0,10.0,69,0.00,,,0.00,Wunderground v.1.15,2013-02-01 19:53:00,
2013-02-01 13:55:00,14.0,5.7,30.39,SW,229,8.0,12.0,69,0.00,,,0.00,Wunderground v.1.15,2013-02-01 19:55:00,
2013-02-01 13:57:00,14.0,5.4,30.39,SW,225,8.0,12.0,68,0.00,,,0.00,Wunderground v.1.15,2013-02-01 19:57:00,
2013-02-01 13:59:00,14.1,5.8,30.39,SW,233,8.0,12.0,69,0.00,,,0.00,Wunderground v.1.15,2013-02-01 19:59:00,
2013-02-01 14:01:00,14.3,6.0,30.39,WSW,246,8.0,13.0,69,0.00,,,0.00,Wunderground v.1.15,2013-02-01 20:01:00,
2013-02-01 14:04:00,14.1,5.1,30.39,SW,235,8.0,13.0,67,0.00,,,0.00,Wunderground v.1.15,2013-02-01 20:04:00,
2013-02-01 14:05:00,14.1,5.5,30.39,WSW,256,8.0,13.0,68,0.00,,,0.00,Wunderground v.1.15,2013-02-01 20:05:00,
2013-02-01 14:06:00,14.2,5.6,30.39,SW,218,8.0,13.0,68,0.00,,,0.00,Wunderground v.1.15,2013-02-01 20:06:00,
2013-02-01 14:10:00,14.2,5.2,30.39,WSW,242,10.0,11.0,67,0.00,,,0.00,Wunderground v.1.15,2013-02-01 20:10:00,
2013-02-01 14:11:00,14.3,5.7,30.38,SW,231,10.0,12.0,68,0.00,,,0.00,Wunderground v.1.15,2013-02-01 20:11:00,
2013-02-01 14:14:00,14.1,4.8,30.39,WSW,240,10.0,12.0,66,0.00,,,0.00,Wunderground v.1.15,2013-02-01 20:14:00,
2013-02-01 14:16:00,14.3,5.7,30.39,WSW,253,10.0,12.0,68,0.00,,,0.00,Wunderground v.1.15,2013-02-01 20:16:00,
2013-02-01 14:19:00,14.3,5.3,30.39,WSW,253,9.0,12.0,67,0.00,,,0.00,Wunderground v.1.15,2013-02-01 20:19:00,
2013-02-01 14:21:00,14.5,6.2,30.39,WSW,251,8.0,13.0,69,0.00,,,0.00,Wunderground v.1.15,2013-02-01 20:21:00,
2013-02-01 14:23:00,14.6,6.6,30.39,WSW,244,8.0,13.0,70,0.00,,,0.00,Wunderground v.1.15,2013-02-01 20:23:00,
2013-02-01 14:24:00,14.6,6.0,30.39,WSW,249,8.0,13.0,68,0.00,,,0.00,Wunderground v.1.15,2013-02-01 20:24:00,
2013-02-01 14:25:00,14.7,6.0,30.39,WSW,238,8.0,13.0,68,0.00,,,0.00,Wunderground v.1.15,2013-02-01 20:25:00,
2013-02-01 14:28:00,14.9,6.6,30.39,SW,222,10.0,13.0,69,0.00,,,0.00,Wunderground v.1.15,2013-02-01 20:28:00,
2013-02-01 14:29:00,14.9,6.6,30.39,WSW,250,10.0,10.0,69,0.00,,,0.00,Wunderground v.1.15,2013-02-01 20:29:00,
2013-02-01 14:30:00,14.9,6.2,30.39,WSW,244,10.0,10.0,68,0.00,,,0.00,Wunderground v.1.15,2013-02-01 20:30:00,
2013-02-01 14:33:00,15.1,6.4,30.39,WSW,252,10.0,15.0,68,0.00,,,0.00,Wunderground v.1.15,2013-02-01 20:33:00,
2013-02-01 14:35:00,15.0,6.0,30.39,WSW,246,11.0,15.0,67,0.00,,,0.00,Wunderground v.1.15,2013-02-01 20:35:00,
2013-02-01 14:37:00,14.8,5.8,30.39,West,259,10.0,15.0,67,0.00,,,0.00,Wunderground v.1.15,2013-02-01 20:37:00,
2013-02-01 14:38:00,14.8,5.8,30.39,West,259,10.0,15.0,67,0.00,,,0.00,Wunderground v.1.15,2013-02-01 20:38:00,
2013-02-01 14:42:00,15.2,6.8,30.39,WSW,257,11.0,13.0,69,0.00,,,0.00,Wunderground v.1.15,2013-02-01 20:42:00,
2013-02-01 14:43:00,15.2,6.8,30.39,WSW,245,10.0,13.0,69,0.00,,,0.00,Wunderground v.1.15,2013-02-01 20:43:00,
2013-02-01 14:47:00,15.4,6.7,30.38,WSW,245,10.0,14.0,68,0.00,,,0.00,Wunderground v.1.15,2013-02-01 20:47:00,
2013-02-01 14:48:00,15.5,7.1,30.38,SW,231,11.0,14.0,69,0.00,,,0.00,Wunderground v.1.15,2013-02-01 20:48:00,
2013-02-01 14:49:00,15.6,6.9,30.39,SW,235,11.0,11.0,68,0.00,,,0.00,Wunderground v.1.15,2013-02-01 20:49:00,
2013-02-01 14:51:00,15.8,7.4,30.38,SW,226,11.0,14.0,69,0.00,,,0.00,Wunderground v.1.15,2013-02-01 20:51:00,
2013-02-01 14:52:00,15.9,7.8,30.38,SW,229,11.0,14.0,70,0.00,,,0.00,Wunderground v.1.15,2013-02-01 20:52:00,
2013-02-01 14:54:00,16.0,7.9,30.38,SW,232,11.0,14.0,70,0.00,,,0.00,Wunderground v.1.15,2013-02-01 20:54:00,
2013-02-01 14:55:00,16.0,7.3,30.38,WSW,239,11.0,15.0,68,0.00,,,0.00,Wunderground v.1.15,2013-02-01 20:55:00,
2013-02-01 14:56:00,16.0,7.0,30.38,SW,236,12.0,15.0,67,0.00,,,0.00,Wunderground v.1.15,2013-02-01 20:56:00,
2013-02-01 14:58:00,15.9,6.5,30.38,WSW,255,12.0,15.0,66,0.00,,,0.00,Wunderground v.1.15,2013-02-01 20:58:00,
2013-02-01 15:02:00,15.6,6.3,30.37,WSW,240,12.0,12.0,66,0.00,,,0.00,Wunderground v.1.15,2013-02-01 21:02:00,
2013-02-01 15:04:00,15.5,6.5,30.37,SW,222,11.0,12.0,67,0.00,,,0.00,Wunderground v.1.15,2013-02-01 21:04:00,
2013-02-01 15:08:00,15.4,7.0,30.38,WSW,238,10.0,15.0,69,0.00,,,0.00,Wunderground v.1.15,2013-02-01 21:08:00,
2013-02-01 15:09:00,15.4,7.0,30.38,WSW,239,10.0,10.0,69,0.00,,,0.00,Wunderground v.1.15,2013-02-01 21:09:00,
2013-02-01 15:10:00,15.4,7.0,30.37,WSW,240,10.0,10.0,69,0.00,,,0.00,Wunderground v.1.15,2013-02-01 21:10:00,
2013-02-01 15:13:00,15.6,7.2,30.37,WSW,249,9.0,10.0,69,0.00,,,0.00,Wunderground v.1.15,2013-02-01 21:13:00,
2013-02-01 15:14:00,15.6,7.6,30.36,WSW,244,9.0,10.0,70,0.00,,,0.00,Wunderground v.1.15,2013-02-01 21:14:00,
2013-02-01 15:18:00,15.6,6.6,30.37,WSW,239,10.0,12.0,67,0.00,,,0.00,Wunderground v.1.15,2013-02-01 21:18:00,
2013-02-01 15:19:00,15.7,7.0,30.37,WSW,242,9.0,11.0,68,0.00,,,0.00,Wunderground v.1.15,2013-02-01 21:19:00,
2013-02-01 15:21:00,15.8,7.1,30.37,WSW,246,10.0,11.0,68,0.00,,,0.00,Wunderground v.1.15,2013-02-01 21:21:00,
2013-02-01 15:24:00,15.7,7.0,30.37,West,259,10.0,12.0,68,0.00,,,0.00,Wunderground v.1.15,2013-02-01 21:24:00,
2013-02-01 15:25:00,15.8,7.1,30.37,WSW,244,11.0,14.0,68,0.00,,,0.00,Wunderground v.1.15,2013-02-01 21:25:00,
2013-02-01 15:26:00,15.7,6.7,30.37,WSW,239,11.0,14.0,67,0.00,,,0.00,Wunderground v.1.15,2013-02-01 21:26:00,
2013-02-01 15:29:00,15.6,6.6,30.37,West,259,11.0,11.0,67,0.00,,,0.00,Wunderground v.1.15,2013-02-01 21:29:00,
2013-02-01 15:30:00,15.6,6.3,30.37,WSW,257,11.0,11.0,66,0.00,,,0.00,Wunderground v.1.15,2013-02-01 21:30:00,
2013-02-01 15:32:00,15.7,7.0,30.37,WSW,250,10.0,11.0,68,0.00,,,0.00,Wunderground v.1.15,2013-02-01 21:32:00,
2013-02-01 15:33:00,15.7,7.0,30.37,SSW,205,10.0,11.0,68,0.00,,,0.00,Wunderground v.1.15,2013-02-01 21:33:00,
2013-02-01 15:35:00,15.8,7.1,30.37,WSW,238,9.0,11.0,68,0.00,,,0.00,Wunderground v.1.15,2013-02-01 21:35:00,
2013-02-01 15:36:00,15.8,7.1,30.37,SW,229,9.0,11.0,68,0.00,,,0.00,Wunderground v.1.15,2013-02-01 21:36:00,
2013-02-01 15:37:00,15.9,7.5,30.37,SW,231,8.0,11.0,69,0.00,,,0.00,Wunderground v.1.15,2013-02-01 21:37:00,
2013-02-01 15:42:00,16.1,7.4,30.37,WSW,240,9.0,13.0,68,0.00,,,0.00,Wunderground v.1.15,2013-02-01 21:42:00,
2013-02-01 15:43:00,16.1,7.4,30.37,SSW,205,9.0,13.0,68,0.00,,,0.00,Wunderground v.1.15,2013-02-01 21:43:00,
2013-02-01 15:46:00,16.0,7.0,30.37,SW,235,10.0,14.0,67,0.00,,,0.00,Wunderground v.1.15,2013-02-01 21:46:00,
2013-02-01 15:49:00,16.1,7.7,30.37,WSW,238,11.0,14.0,69,0.00,,,0.00,Wunderground v.1.15,2013-02-01 21:49:00,
2013-02-01 15:53:00,16.2,7.8,30.37,SW,226,10.0,11.0,69,0.00,,,0.00,Wunderground v.1.15,2013-02-01 21:53:00,
2013-02-01 15:54:00,16.2,7.5,30.37,SW,232,10.0,11.0,68,0.00,,,0.00,Wunderground v.1.15,2013-02-01 21:54:00,
2013-02-01 15:56:00,16.2,7.5,30.37,WSW,245,9.0,12.0,68,0.00,,,0.00,Wunderground v.1.15,2013-02-01 21:56:00,
2013-02-01 15:58:00,16.1,7.7,30.37,WSW,242,9.0,12.0,69,0.00,,,0.00,Wunderground v.1.15,2013-02-01 21:58:00,
2013-02-01 16:01:00,16.0,7.3,30.37,WSW,238,9.0,9.0,68,0.00,,,0.00,Wunderground v.1.15,2013-02-01 22:01:00,
2013-02-01 16:03:00,16.0,7.6,30.37,SW,232,9.0,10.0,69,0.00,,,0.00,Wunderground v.1.15,2013-02-01 22:03:00,
2013-02-01 16:04:00,16.0,7.6,30.36,SW,229,9.0,10.0,69,0.00,,,0.00,Wunderground v.1.15,2013-02-01 22:04:00,
2013-02-01 16:07:00,15.9,7.5,30.36,WSW,240,9.0,13.0,69,0.00,,,0.00,Wunderground v.1.15,2013-02-01 22:07:00,
2013-02-01 16:09:00,15.9,7.5,30.36,WSW,240,9.0,13.0,69,0.00,,,0.00,Wunderground v.1.15,2013-02-01 22:09:00,
2013-02-01 16:12:00,15.8,7.4,30.36,WSW,245,10.0,13.0,69,0.00,,,0.00,Wunderground v.1.15,2013-02-01 22:12:00,
2013-02-01 16:14:00,15.8,7.4,30.36,WSW,256,9.0,13.0,69,0.00,,,0.00,Wunderground v.1.15,2013-02-01 22:14:00,
2013-02-01 16:15:00,15.9,7.8,30.36,SW,235,9.0,13.0,70,0.00,,,0.00,Wunderground v.1.15,2013-02-01 22:15:00,
2013-02-01 16:19:00,15.9,8.2,30.36,SW,222,9.0,13.0,71,0.00,,,0.00,Wunderground v.1.15,2013-02-01 22:19:00,
2013-02-01 16:20:00,15.9,8.2,30.36,SW,229,9.0,12.0,71,0.00,,,0.00,Wunderground v.1.15,2013-02-01 22:20:00,
2013-02-01 16:21:00,15.9,7.5,30.36,SSW,208,9.0,12.0,69,0.00,,,0.00,Wunderground v.1.15,2013-02-01 22:21:00,
2013-02-01 16:26:00,15.8,7.4,30.36,SW,226,10.0,13.0,69,0.00,,,0.00,Wunderground v.1.15,2013-02-01 22:26:00,
2013-02-01 16:28:00,15.8,7.1,30.36,SW,221,10.0,13.0,68,0.00,,,0.00,Wunderground v.1.15,2013-02-01 22:28:00,
2013-02-01 16:29:00,15.8,7.4,30.36,WSW,238,10.0,10.0,69,0.00,,,0.00,Wunderground v.1.15,2013-02-01 22:29:00,
2013-02-01 16:30:00,15.8,7.4,30.36,WSW,243,10.0,10.0,69,0.00,,,0.00,Wunderground v.1.15,2013-02-01 22:30:00,
2013-02-01 16:33:00,15.8,7.7,30.36,SW,226,10.0,10.0,70,0.00,,,0.00,Wunderground v.1.15,2013-02-01 22:33:00,
2013-02-01 16:34:00,15.9,7.8,30.36,SW,232,9.0,10.0,70,0.00,,,0.00,Wunderground v.1.15,2013-02-01 22:34:00,
2013-02-01 16:36:00,15.9,7.5,30.36,WSW,239,9.0,11.0,69,0.00,,,0.00,Wunderground v.1.15,2013-02-01 22:36:00,
2013-02-01 16:38:00,15.8,7.1,30.36,SW,235,10.0,12.0,68,0.00,,,0.00,Wunderground v.1.15,2013-02-01 22:38:00,
2013-02-01 16:39:00,15.7,6.7,30.36,WSW,252,10.0,10.0,67,0.00,,,0.00,Wunderground v.1.15,2013-02-01 22:39:00,
2013-02-01 16:43:00,15.7,7.0,30.35,SW,218,10.0,10.0,68,0.00,,,0.00,Wunderground v.1.15,2013-02-01 22:43:00,
2013-02-01 16:44:00,15.7,7.3,30.36,WSW,238,10.0,10.0,69,0.00,,,0.00,Wunderground v.1.15,2013-02-01 22:44:00,
2013-02-01 16:46:00,15.7,7.0,30.35,SW,233,10.0,10.0,68,0.00,,,0.00,Wunderground v.1.15,2013-02-01 22:46:00,
2013-02-01 16:50:00,15.8,7.4,30.35,South,184,8.0,8.0,69,0.00,,,0.00,Wunderground v.1.15,2013-02-01 22:50:00,
2013-02-01 16:53:00,15.8,7.4,30.35,SW,232,9.0,10.0,69,0.00,,,0.00,Wunderground v.1.15,2013-02-01 22:53:00,
2013-02-01 16:54:00,15.8,7.4,30.35,West,267,9.0,10.0,69,0.00,,,0.00,Wunderground v.1.15,2013-02-01 22:54:00,
2013-02-01 16:58:00,15.8,7.4,30.35,SW,232,8.0,10.0,69,0.00,,,0.00,Wunderground v.1.15,2013-02-01 22:58:00,
2013-02-01 17:00:00,15.9,7.8,30.35,SW,235,7.0,10.0,70,0.00,,,0.00,Wunderground v.1.15,2013-02-01 23:00:00,
2013-02-01 17:04:00,15.8,7.4,30.34,WSW,239,7.0,10.0,69,0.00,,,0.00,Wunderground v.1.15,2013-02-01 23:04:00,
2013-02-01 17:05:00,15.8,7.1,30.34,SW,232,7.0,10.0,68,0.00,,,0.00,Wunderground v.1.15,2013-02-01 23:05:00,
2013-02-01 17:07:00,15.8,7.4,30.34,WSW,239,7.0,10.0,69,0.00,,,0.00,Wunderground v.1.15,2013-02-01 23:07:00,
2013-02-01 17:09:00,15.8,7.7,30.34,SW,225,7.0,10.0,70,0.00,,,0.00,Wunderground v.1.15,2013-02-01 23:09:00,
2013-02-01 17:10:00,15.8,7.7,30.34,SW,231,8.0,9.0,70,0.00,,,0.00,Wunderground v.1.15,2013-02-01 23:10:00,
2013-02-01 17:15:00,15.9,7.8,30.35,SW,225,8.0,13.0,70,0.00,,,0.00,Wunderground v.1.15,2013-02-01 23:15:00,
2013-02-01 17:18:00,15.9,7.5,30.34,SW,229,9.0,13.0,69,0.00,,,0.00,Wunderground v.1.15,2013-02-01 23:18:00,
2013-02-01 17:21:00,15.9,7.8,30.34,SW,222,9.0,9.0,70,0.00,,,0.00,Wunderground v.1.15,2013-02-01 23:21:00,
2013-02-01 17:22:00,15.9,7.8,30.34,SW,215,9.0,9.0,70,0.00,,,0.00,Wunderground v.1.15,2013-02-01 23:22:00,
2013-02-01 17:23:00,15.9,7.8,30.34,SW,233,8.0,9.0,70,0.00,,,0.00,Wunderground v.1.15,2013-02-01 23:23:00,
2013-02-01 17:25:00,16.0,7.9,30.34,SW,218,8.0,10.0,70,0.00,,,0.00,Wunderground v.1.15,2013-02-01 23:25:00,
2013-02-01 17:28:00,16.0,8.3,30.34,SW,225,8.0,10.0,71,0.00,,,0.00,Wunderground v.1.15,2013-02-01 23:28:00,
2013-02-01 17:30:00,16.0,8.3,30.34,WSW,238,8.0,10.0,71,0.00,,,0.00,Wunderground v.1.15,2013-02-01 23:30:00,
2013-02-01 17:32:00,16.1,8.3,30.34,SSW,211,8.0,11.0,71,0.00,,,0.00,Wunderground v.1.15,2013-02-01 23:32:00,
2013-02-01 17:33:00,16.2,8.4,30.34,SW,229,8.0,11.0,71,0.00,,,0.00,Wunderground v.1.15,2013-02-01 23:33:00,
2013-02-01 17:37:00,16.2,8.1,30.34,SSW,201,8.0,11.0,70,0.00,,,0.00,Wunderground v.1.15,2013-02-01 23:37:00,
2013-02-01 17:39:00,16.2,8.4,30.34,SW,224,9.0,9.0,71,0.00,,,0.00,Wunderground v.1.15,2013-02-01 23:39:00,
2013-02-01 17:40:00,16.2,8.4,30.34,SW,231,8.0,9.0,71,0.00,,,0.00,Wunderground v.1.15,2013-02-01 23:40:00,
2013-02-01 17:42:00,16.3,8.5,30.34,SW,236,8.0,10.0,71,0.00,,,0.00,Wunderground v.1.15,2013-02-01 23:42:00,
2013-02-01 17:46:00,16.3,8.2,30.34,SW,232,8.0,11.0,70,0.00,,,0.00,Wunderground v.1.15,2013-02-01 23:46:00,
2013-02-01 17:47:00,16.3,8.5,30.34,SW,229,8.0,11.0,71,0.00,,,0.00,Wunderground v.1.15,2013-02-01 23:47:00,
2013-02-01 17:50:00,16.4,8.6,30.34,SSW,203,7.0,10.0,71,0.00,,,0.00,Wunderground v.1.15,2013-02-01 23:50:00,
2013-02-01 17:51:00,16.4,8.6,30.34,SSW,212,7.0,10.0,71,0.00,,,0.00,Wunderground v.1.15,2013-02-01 23:51:00,
2013-02-01 17:55:00,16.5,8.7,30.34,SW,228,8.0,10.0,71,0.00,,,0.00,Wunderground v.1.15,2013-02-01 23:55:00,
2013-02-01 17:56:00,16.5,9.0,30.34,SW,214,7.0,10.0,72,0.00,,,0.00,Wunderground v.1.15,2013-02-01 23:56:00,
2013-02-01 17:58:00,16.5,8.7,30.34,SW,225,8.0,10.0,71,0.00,,,0.00,Wunderground v.1.15,2013-02-01 23:58:00,
2013-02-01 18:00:00,16.5,8.4,30.34,SW,232,8.0,8.0,70,0.00,,,0.00,Wunderground v.1.15,2013-02-02 00:00:00,
2013-02-01 18:02:00,16.5,8.7,30.34,SW,232,8.0,9.0,71,0.00,,,0.00,Wunderground v.1.15,2013-02-02 00:02:00,
2013-02-01 18:03:00,16.6,8.8,30.33,SW,221,8.0,9.0,71,0.00,,,0.00,Wunderground v.1.15,2013-02-02 00:03:00,
2013-02-01 18:04:00,16.6,8.8,30.33,SW,232,8.0,9.0,71,0.00,,,0.00,Wunderground v.1.15,2013-02-02 00:04:00,
2013-02-01 18:07:00,16.6,8.8,30.33,SW,226,7.0,9.0,71,0.00,,,0.00,Wunderground v.1.15,2013-02-02 00:07:00,
2013-02-01 18:08:00,16.6,8.8,30.33,SW,215,7.0,9.0,71,0.00,,,0.00,Wunderground v.1.15,2013-02-02 00:08:00,
2013-02-01 18:13:00,16.7,8.9,30.34,SSW,211,8.0,11.0,71,0.00,,,0.00,Wunderground v.1.15,2013-02-02 00:13:00,
2013-02-01 18:16:00,16.7,8.6,30.33,SW,220,9.0,11.0,70,0.00,,,0.00,Wunderground v.1.15,2013-02-02 00:16:00,
2013-02-01 18:20:00,16.7,9.2,30.34,SW,215,9.0,12.0,72,0.00,,,0.00,Wunderground v.1.15,2013-02-02 00:20:00,
2013-02-01 18:21:00,16.7,8.9,30.33,SSW,212,9.0,12.0,71,0.00,,,0.00,Wunderground v.1.15,2013-02-02 00:21:00,
2013-02-01 18:23:00,16.7,8.9,30.33,SW,229,9.0,12.0,71,0.00,,,0.00,Wunderground v.1.15,2013-02-02 00:23:00,
2013-02-01 18:24:00,16.8,9.0,30.33,WSW,238,9.0,12.0,71,0.00,,,0.00,Wunderground v.1.15,2013-02-02 00:24:00,
2013-02-01 18:29:00,16.8,9.0,30.33,SW,229,9.0,12.0,71,0.00,,,0.00,Wunderground v.1.15,2013-02-02 00:29:00,
2013-02-01 18:30:00,16.8,9.0,30.33,SSW,208,9.0,9.0,71,0.00,,,0.00,Wunderground v.1.15,2013-02-02 00:30:00,
2013-02-01 18:31:00,16.8,9.0,30.33,SW,225,8.0,9.0,71,0.00,,,0.00,Wunderground v.1.15,2013-02-02 00:31:00,
2013-02-01 18:36:00,16.8,9.0,30.33,SSW,204,9.0,12.0,71,0.00,,,0.00,Wunderground v.1.15,2013-02-02 00:36:00,
2013-02-01 18:37:00,16.8,9.0,30.33,SSW,200,8.0,12.0,71,0.00,,,0.00,Wunderground v.1.15,2013-02-02 00:37:00,
2013-02-01 18:38:00,16.8,9.0,30.33,SW,214,8.0,12.0,71,0.00,,,0.00,Wunderground v.1.15,2013-02-02 00:38:00,
2013-02-01 18:41:00,16.8,8.7,30.32,SSW,194,9.0,9.0,70,0.00,,,0.00,Wunderground v.1.15,2013-02-02 00:41:00,
2013-02-01 18:44:00,16.8,9.0,30.32,SW,219,9.0,9.0,71,0.00,,,0.00,Wunderground v.1.15,2013-02-02 00:44:00,
2013-02-01 18:46:00,16.9,9.4,30.32,SSW,193,8.0,9.0,72,0.00,,,0.00,Wunderground v.1.15,2013-02-02 00:46:00,
2013-02-01 18:49:00,16.9,9.1,30.32,SSW,204,8.0,9.0,71,0.00,,,0.00,Wunderground v.1.15,2013-02-02 00:49:00,
2013-02-01 18:50:00,16.9,9.1,30.32,SW,215,8.0,9.0,71,0.00,,,0.00,Wunderground v.1.15,2013-02-02 00:50:00,
2013-02-01 18:52:00,16.9,9.1,30.32,South,190,7.0,9.0,71,0.00,,,0.00,Wunderground v.1.15,2013-02-02 00:52:00,
2013-02-01 18:54:00,16.9,9.1,30.32,SSW,204,7.0,9.0,71,0.00,,,0.00,Wunderground v.1.15,2013-02-02 00:54:00,
2013-02-01 18:55:00,16.9,9.1,30.32,SSW,211,8.0,9.0,71,0.00,,,0.00,Wunderground v.1.15,2013-02-02 00:55:00,
2013-02-01 18:57:00,16.9,9.1,30.32,SSW,195,8.0,9.0,71,0.00,,,0.00,Wunderground v.1.15,2013-02-02 00:57:00,
2013-02-01 19:00:00,16.9,8.5,30.32,SSW,203,8.0,8.0,69,0.00,,,0.00,Wunderground v.1.15,2013-02-02 01:00:00,
2013-02-01 19:01:00,16.8,8.4,30.32,SSW,193,8.0,8.0,69,0.00,,,0.00,Wunderground v.1.15,2013-02-02 01:01:00,
2013-02-01 19:02:00,16.9,8.5,30.32,SSW,195,8.0,8.0,69,0.00,,,0.00,Wunderground v.1.15,2013-02-02 01:02:00,
2013-02-01 19:06:00,16.9,8.8,30.31,WSW,239,8.0,11.0,70,0.00,,,0.00,Wunderground v.1.15,2013-02-02 01:06:00,
2013-02-01 19:07:00,16.9,8.8,30.31,South,190,8.0,11.0,70,0.00,,,0.00,Wunderground v.1.15,2013-02-02 01:07:00,
2013-02-01 19:10:00,17.0,8.9,30.31,SW,214,7.0,7.0,70,0.00,,,0.00,Wunderground v.1.15,2013-02-02 01:10:00,
2013-02-01 19:12:00,17.0,8.9,30.31,South,191,6.0,7.0,70,0.00,,,0.00,Wunderground v.1.15,2013-02-02 01:12:00,
2013-02-01 19:14:00,16.9,8.5,30.31,SSW,201,6.0,7.0,69,0.00,,,0.00,Wunderground v.1.15,2013-02-02 01:14:00,
2013-02-01 19:17:00,17.0,8.9,30.30,South,186,6.0,7.0,70,0.00,,,0.00,Wunderground v.1.15,2013-02-02 01:17:00,
2013-02-01 19:18:00,17.0,8.9,30.30,South,172,6.0,7.0,70,0.00,,,0.00,Wunderground v.1.15,2013-02-02 01:18:00,
2013-02-01 19:23:00,17.0,8.9,30.30,SSW,194,7.0,8.0,70,0.00,,,0.00,Wunderground v.1.15,2013-02-02 01:23:00,
2013-02-01 19:24:00,17.0,8.9,30.30,SSW,193,7.0,8.0,70,0.00,,,0.00,Wunderground v.1.15,2013-02-02 01:24:00,
2013-02-01 19:25:00,17.1,9.0,30.30,South,169,7.0,8.0,70,0.00,,,0.00,Wunderground v.1.15,2013-02-02 01:25:00,
2013-02-01 19:27:00,17.1,8.7,30.30,SSE,152,7.0,8.0,69,0.00,,,0.00,Wunderground v.1.15,2013-02-02 01:27:00,
2013-02-01 19:29:00,17.1,8.7,30.30,SSW,198,7.0,8.0,69,0.00,,,0.00,Wunderground v.1.15,2013-02-02 01:29:00,
2013-02-01 19:30:00,17.1,8.3,30.30,South,187,7.0,8.0,68,0.00,,,0.00,Wunderground v.1.15,2013-02-02 01:30:00,
2013-02-01 19:36:00,17.2,8.8,30.29,South,185,7.0,8.0,69,0.00,,,0.00,Wunderground v.1.15,2013-02-02 01:36:00,
2013-02-01 19:37:00,17.2,8.8,30.29,South,172,7.0,8.0,69,0.00,,,0.00,Wunderground v.1.15,2013-02-02 01:37:00,
2013-02-01 19:38:00,17.2,8.8,30.29,South,190,7.0,8.0,69,0.00,,,0.00,Wunderground v.1.15,2013-02-02 01:38:00,
2013-02-01 19:39:00,17.2,8.8,30.29,SSE,162,6.0,6.0,69,0.00,,,0.00,Wunderground v.1.15,2013-02-02 01:39:00,
2013-02-01 19:41:00,17.3,8.5,30.29,SSW,201,6.0,8.0,68,0.00,,,0.00,Wunderground v.1.15,2013-02-02 01:41:00,
2013-02-01 19:42:00,17.3,8.5,30.29,SSW,203,6.0,8.0,68,0.00,,,0.00,Wunderground v.1.15,2013-02-02 01:42:00,
2013-02-01 19:44:00,17.3,8.5,30.29,South,176,6.0,8.0,68,0.00,,,0.00,Wunderground v.1.15,2013-02-02 01:44:00,
2013-02-01 19:46:00,17.3,8.5,30.29,South,188,6.0,8.0,68,0.00,,,0.00,Wunderground v.1.15,2013-02-02 01:46:00,
2013-02-01 19:47:00,17.3,8.5,30.29,South,191,6.0,8.0,68,0.00,,,0.00,Wunderground v.1.15,2013-02-02 01:47:00,
2013-02-01 19:50:00,17.3,8.2,30.29,SSW,194,7.0,8.0,67,0.00,,,0.00,Wunderground v.1.15,2013-02-02 01:50:00,
2013-02-01 19:52:00,17.4,8.3,30.29,South,191,7.0,8.0,67,0.00,,,0.00,Wunderground v.1.15,2013-02-02 01:52:00,
2013-02-01 19:55:00,17.4,8.6,30.28,SSW,194,7.0,8.0,68,0.00,,,0.00,Wunderground v.1.15,2013-02-02 01:55:00,
2013-02-01 19:56:00,17.4,8.6,30.28,SSW,200,7.0,9.0,68,0.00,,,0.00,Wunderground v.1.15,2013-02-02 01:56:00,
2013-02-01 19:58:00,17.5,8.4,30.28,South,174,7.0,9.0,67,0.00,,,0.00,Wunderground v.1.15,2013-02-02 01:58:00,
2013-02-01 20:00:00,17.5,8.7,30.28,South,186,7.0,7.0,68,0.00,,,0.00,Wunderground v.1.15,2013-02-02 02:00:00,
2013-02-01 20:01:00,17.5,8.7,30.28,South,179,6.0,8.0,68,0.00,,,0.00,Wunderground v.1.15,2013-02-02 02:01:00,
2013-02-01 20:03:00,17.5,8.7,30.28,South,188,6.0,9.0,68,0.00,,,0.00,Wunderground v.1.15,2013-02-02 02:03:00,
2013-02-01 20:05:00,17.6,8.8,30.28,South,183,7.0,9.0,68,0.00,,,0.00,Wunderground v.1.15,2013-02-02 02:05:00,
2013-02-01 20:07:00,17.7,8.9,30.28,South,181,6.0,9.0,68,0.00,,,0.00,Wunderground v.1.15,2013-02-02 02:07:00,
2013-02-01 20:09:00,17.7,9.2,30.27,South,169,6.0,9.0,69,0.00,,,0.00,Wunderground v.1.15,2013-02-02 02:09:00,
2013-02-01 20:12:00,17.7,8.9,30.27,South,177,7.0,9.0,68,0.00,,,0.00,Wunderground v.1.15,2013-02-02 02:12:00,
2013-02-01 20:14:00,17.7,8.9,30.27,SSE,166,7.0,10.0,68,0.00,,,0.00,Wunderground v.1.15,2013-02-02 02:14:00,
2013-02-01 20:15:00,17.8,9.0,30.27,SSW,196,7.0,10.0,68,0.00,,,0.00,Wunderground v.1.15,2013-02-02 02:15:00,
2013-02-01 20:16:00,17.8,9.0,30.27,South,169,7.0,10.0,68,0.00,,,0.00,Wunderground v.1.15,2013-02-02 02:16:00,
2013-02-01 20:20:00,17.8,9.0,30.27,SSW,205,8.0,8.0,68,0.00,,,0.00,Wunderground v.1.15,2013-02-02 02:20:00,
2013-02-01 20:22:00,17.8,9.3,30.26,South,187,7.0,8.0,69,0.00,,,0.00,Wunderground v.1.15,2013-02-02 02:22:00,
2013-02-01 20:24:00,17.9,9.4,30.26,South,175,7.0,9.0,69,0.00,,,0.00,Wunderground v.1.15,2013-02-02 02:24:00,
2013-02-01 20:27:00,18.0,9.5,30.26,SSW,193,7.0,9.0,69,0.00,,,0.00,Wunderground v.1.15,2013-02-02 02:27:00,
2013-02-01 20:29:00,18.0,9.5,30.26,South,184,7.0,9.0,69,0.00,,,0.00,Wunderground v.1.15,2013-02-02 02:29:00,
2013-02-01 20:31:00,18.1,9.6,30.26,South,169,7.0,8.0,69,0.00,,,0.00,Wunderground v.1.15,2013-02-02 02:31:00,
2013-02-01 20:32:00,18.1,9.6,30.26,South,176,7.0,8.0,69,0.00,,,0.00,Wunderground v.1.15,2013-02-02 02:32:00,
2013-02-01 20:34:00,18.1,9.6,30.26,South,176,7.0,8.0,69,0.00,,,0.00,Wunderground v.1.15,2013-02-02 02:34:00,
2013-02-01 20:37:00,18.1,9.6,30.26,South,180,7.0,9.0,69,0.00,,,0.00,Wunderground v.1.15,2013-02-02 02:37:00,
2013-02-01 20:38:00,18.2,9.7,30.26,South,179,7.0,10.0,69,0.00,,,0.00,Wunderground v.1.15,2013-02-02 02:38:00,
2013-02-01 20:42:00,18.3,9.5,30.25,SSE,162,8.0,9.0,68,0.00,,,0.00,Wunderground v.1.15,2013-02-02 02:42:00,
2013-02-01 20:44:00,18.3,9.8,30.25,SSE,167,8.0,9.0,69,0.00,,,0.00,Wunderground v.1.15,2013-02-02 02:44:00,
2013-02-01 20:45:00,18.3,9.8,30.25,South,191,8.0,10.0,69,0.00,,,0.00,Wunderground v.1.15,2013-02-02 02:45:00,
2013-02-01 20:48:00,18.4,9.9,30.25,South,181,9.0,10.0,69,0.00,,,0.00,Wunderground v.1.15,2013-02-02 02:48:00,
2013-02-01 20:50:00,18.5,10.0,30.25,South,170,9.0,9.0,69,0.00,,,0.00,Wunderground v.1.15,2013-02-02 02:50:00,
2013-02-01 20:51:00,18.5,10.0,30.25,South,172,9.0,9.0,69,0.00,,,0.00,Wunderground v.1.15,2013-02-02 02:51:00,
2013-02-01 20:55:00,18.6,10.1,30.25,South,184,9.0,10.0,69,0.00,,,0.00,Wunderground v.1.15,2013-02-02 02:55:00,
2013-02-01 20:59:00,18.6,10.1,30.25,South,173,8.0,10.0,69,0.00,,,0.00,Wunderground v.1.15,2013-02-02 02:59:00,
2013-02-01 21:02:00,18.7,10.2,30.24,SSW,197,8.0,9.0,69,0.00,,,0.00,Wunderground v.1.15,2013-02-02 03:02:00,
2013-02-01 21:06:00,18.7,9.9,30.24,South,180,8.0,9.0,68,0.00,,,0.00,Wunderground v.1.15,2013-02-02 03:06:00,
2013-02-01 21:08:00,18.8,10.0,30.24,SSE,160,8.0,11.0,68,0.00,,,0.00,Wunderground v.1.15,2013-02-02 03:08:00,
2013-02-01 21:09:00,18.8,10.0,30.24,South,183,8.0,8.0,68,0.00,,,0.00,Wunderground v.1.15,2013-02-02 03:09:00,
2013-02-01 21:11:00,18.8,10.0,30.24,SW,217,8.0,11.0,68,0.00,,,0.00,Wunderground v.1.15,2013-02-02 03:11:00,
2013-02-01 21:12:00,18.8,10.0,30.24,SSW,208,9.0,13.0,68,0.00,,,0.00,Wunderground v.1.15,2013-02-02 03:12:00,
2013-02-01 21:17:00,18.9,10.1,30.24,South,191,9.0,15.0,68,0.00,,,0.00,Wunderground v.1.15,2013-02-02 03:17:00,
2013-02-01 21:20:00,18.9,10.1,30.24,SSW,200,10.0,10.0,68,0.00,,,0.00,Wunderground v.1.15,2013-02-02 03:20:00,
2013-02-01 21:21:00,19.0,10.2,30.24,South,186,9.0,10.0,68,0.00,,,0.00,Wunderground v.1.15,2013-02-02 03:21:00,
2013-02-01 21:22:00,19.0,10.5,30.24,South,188,9.0,10.0,69,0.00,,,0.00,Wunderground v.1.15,2013-02-02 03:22:00,
2013-02-01 21:26:00,19.1,10.6,30.23,SSW,205,8.0,10.0,69,0.00,,,0.00,Wunderground v.1.15,2013-02-02 03:26:00,
2013-02-01 21:27:00,19.1,10.6,30.23,South,174,8.0,10.0,69,0.00,,,0.00,Wunderground v.1.15,2013-02-02 03:27:00,
2013-02-01 21:31:00,19.2,10.7,30.23,South,172,8.0,9.0,69,0.00,,,0.00,Wunderground v.1.15,2013-02-02 03:31:00,
2013-02-01 21:33:00,19.2,10.7,30.23,South,183,8.0,10.0,69,0.00,,,0.00,Wunderground v.1.15,2013-02-02 03:33:00,
2013-02-01 21:34:00,19.2,10.7,30.23,SSW,195,8.0,10.0,69,0.00,,,0.00,Wunderground v.1.15,2013-02-02 03:34:00,
2013-02-01 21:38:00,19.4,10.9,30.23,South,173,8.0,10.0,69,0.00,,,0.00,Wunderground v.1.15,2013-02-02 03:38:00,
2013-02-01 21:39:00,19.4,10.9,30.23,South,173,8.0,8.0,69,0.00,,,0.00,Wunderground v.1.15,2013-02-02 03:39:00,
2013-02-01 21:40:00,19.4,10.9,30.23,SSE,166,8.0,8.0,69,0.00,,,0.00,Wunderground v.1.15,2013-02-02 03:40:00,
2013-02-01 21:44:00,19.6,11.1,30.24,SSW,210,8.0,9.0,69,0.00,,,0.00,Wunderground v.1.15,2013-02-02 03:44:00,
2013-02-01 21:45:00,19.6,11.1,30.24,South,175,8.0,9.0,69,0.00,,,0.00,Wunderground v.1.15,2013-02-02 03:45:00,
2013-02-01 21:47:00,19.6,11.1,30.24,South,189,8.0,9.0,69,0.00,,,0.00,Wunderground v.1.15,2013-02-02 03:47:00,
2013-02-01 21:48:00,19.7,11.2,30.24,South,189,8.0,9.0,69,0.00,,,0.00,Wunderground v.1.15,2013-02-02 03:48:00,
2013-02-01 21:50:00,19.7,11.2,30.24,SSW,195,7.0,9.0,69,0.00,,,0.00,Wunderground v.1.15,2013-02-02 03:50:00,
2013-02-01 21:53:00,19.8,11.3,30.23,SSW,195,8.0,9.0,69,0.00,,,0.00,Wunderground v.1.15,2013-02-02 03:53:00,
2013-02-01 21:56:00,19.9,11.4,30.23,South,184,8.0,10.0,69,0.00,,,0.00,Wunderground v.1.15,2013-02-02 03:56:00,
2013-02-01 21:57:00,19.9,11.4,30.23,South,172,8.0,10.0,69,0.00,,,0.00,Wunderground v.1.15,2013-02-02 03:57:00,
2013-02-01 21:59:00,20.0,11.5,30.23,South,183,9.0,11.0,69,0.00,,,0.00,Wunderground v.1.15,2013-02-02 03:59:00,
2013-02-01 22:00:00,20.0,11.5,30.23,South,183,9.0,10.0,69,0.00,,,0.00,Wunderground v.1.15,2013-02-02 04:00:00,
2013-02-01 22:02:00,20.1,11.6,30.23,SSW,200,9.0,15.0,69,0.00,,,0.00,Wunderground v.1.15,2013-02-02 04:02:00,
2013-02-01 22:05:00,20.1,11.6,30.23,SW,218,10.0,15.0,69,0.00,,,0.00,Wunderground v.1.15,2013-02-02 04:05:00,
2013-02-01 22:08:00,20.2,12.3,30.23,SSW,197,10.0,15.0,71,0.00,,,0.00,Wunderground v.1.15,2013-02-02 04:08:00,
2013-02-01 22:11:00,20.2,12.6,30.23,SSW,212,11.0,17.0,72,0.00,,,0.00,Wunderground v.1.15,2013-02-02 04:11:00,
2013-02-01 22:12:00,20.2,12.9,30.23,SSW,205,11.0,17.0,73,0.00,,,0.00,Wunderground v.1.15,2013-02-02 04:12:00,
2013-02-01 22:13:00,20.2,12.9,30.23,SW,214,11.0,17.0,73,0.00,,,0.00,Wunderground v.1.15,2013-02-02 04:13:00,
2013-02-01 22:16:00,20.1,13.1,30.23,SSW,205,12.0,17.0,74,0.00,,,0.00,Wunderground v.1.15,2013-02-02 04:16:00,
2013-02-01 22:17:00,20.1,13.4,30.23,SW,229,12.0,17.0,75,0.00,,,0.00,Wunderground v.1.15,2013-02-02 04:17:00,
2013-02-01 22:18:00,20.0,13.3,30.23,SSW,200,12.0,17.0,75,0.00,,,0.00,Wunderground v.1.15,2013-02-02 04:18:00,
2013-02-01 22:22:00,20.0,13.9,30.23,South,184,11.0,12.0,77,0.00,,,0.00,Wunderground v.1.15,2013-02-02 04:22:00,
2013-02-01 22:24:00,19.8,14.0,30.23,SW,225,10.0,13.0,78,0.00,,,0.00,Wunderground v.1.15,2013-02-02 04:24:00,
2013-02-01 22:26:00,19.8,14.3,30.23,SW,216,9.0,13.0,79,0.00,,,0.00,Wunderground v.1.15,2013-02-02 04:26:00,
2013-02-01 22:27:00,19.7,14.5,30.23,SW,218,9.0,13.0,80,0.00,,,0.00,Wunderground v.1.15,2013-02-02 04:27:00,
2013-02-01 22:28:00,19.7,14.5,30.23,SSW,205,9.0,13.0,80,0.00,,,0.00,Wunderground v.1.15,2013-02-02 04:28:00,
2013-02-01 22:29:00,19.7,14.5,30.23,South,188,9.0,9.0,80,0.00,,,0.00,Wunderground v.1.15,2013-02-02 04:29:00,
2013-02-01 22:31:00,19.6,14.7,30.23,South,174,10.0,14.0,81,0.00,,,0.00,Wunderground v.1.15,2013-02-02 04:31:00,
2013-02-01 22:33:00,19.6,15.0,30.22,SSW,210,10.0,14.0,82,0.00,,,0.00,Wunderground v.1.15,2013-02-02 04:33:00,
2013-02-01 22:34:00,19.5,14.9,30.22,SW,218,10.0,14.0,82,0.00,,,0.00,Wunderground v.1.15,2013-02-02 04:34:00,
2013-02-01 22:36:00,19.5,15.2,30.22,SSW,200,9.0,14.0,83,0.00,,,0.00,Wunderground v.1.15,2013-02-02 04:36:00,
2013-02-01 22:38:00,19.4,15.1,30.22,SSW,198,9.0,14.0,83,0.00,,,0.00,Wunderground v.1.15,2013-02-02 04:38:00,
2013-02-01 22:43:00,19.4,15.4,30.22,South,190,8.0,10.0,84,0.00,,,0.00,Wunderground v.1.15,2013-02-02 04:43:00,
2013-02-01 22:44:00,19.4,15.4,30.22,SSW,201,8.0,10.0,84,0.00,,,0.00,Wunderground v.1.15,2013-02-02 04:44:00,
2013-02-01 22:45:00,19.4,15.6,30.22,SSW,194,8.0,11.0,85,0.00,,,0.00,Wunderground v.1.15,2013-02-02 04:45:00,
2013-02-01 22:48:00,19.4,15.6,30.22,SW,218,8.0,11.0,85,0.00,,,0.00,Wunderground v.1.15,2013-02-02 04:48:00,
2013-02-01 22:52:00,19.4,15.9,30.22,SSW,205,8.0,8.0,86,0.00,,,0.00,Wunderground v.1.15,2013-02-02 04:52:00,
2013-02-01 22:53:00,19.4,15.9,30.23,SW,222,8.0,8.0,86,0.00,,,0.00,Wunderground v.1.15,2013-02-02 04:53:00,
2013-02-01 22:55:00,19.4,15.9,30.23,SW,222,8.0,10.0,86,0.00,,,0.00,Wunderground v.1.15,2013-02-02 04:55:00,
2013-02-01 22:57:00,19.5,16.0,30.23,SSW,208,8.0,10.0,86,0.00,,,0.00,Wunderground v.1.15,2013-02-02 04:57:00,
2013-02-01 22:58:00,19.5,16.3,30.23,SW,228,8.0,10.0,87,0.00,,,0.00,Wunderground v.1.15,2013-02-02 04:58:00,
2013-02-01 23:00:00,19.6,16.4,30.23,SW,235,8.0,8.0,87,0.00,,,0.00,Wunderground v.1.15,2013-02-02 05:00:00,
2013-02-01 23:03:00,19.6,16.4,30.23,SW,232,7.0,8.0,87,0.00,,,0.00,Wunderground v.1.15,2013-02-02 05:03:00,
2013-02-01 23:04:00,19.6,16.4,30.23,SW,216,7.0,9.0,87,0.00,,,0.00,Wunderground v.1.15,2013-02-02 05:04:00,
2013-02-01 23:05:00,19.6,16.4,30.23,SW,215,7.0,9.0,87,0.00,,,0.00,Wunderground v.1.15,2013-02-02 05:05:00,
2013-02-01 23:08:00,19.6,16.6,30.23,SW,224,7.0,9.0,88,0.00,,,0.00,Wunderground v.1.15,2013-02-02 05:08:00,
2013-02-01 23:09:00,19.6,16.6,30.23,SW,225,7.0,7.0,88,0.00,,,0.00,Wunderground v.1.15,2013-02-02 05:09:00,
2013-02-01 23:10:00,19.7,16.7,30.23,SW,224,7.0,9.0,88,0.00,,,0.00,Wunderground v.1.15,2013-02-02 05:10:00,
2013-02-01 23:13:00,19.8,16.8,30.23,SW,229,7.0,9.0,88,0.00,,,0.00,Wunderground v.1.15,2013-02-02 05:13:00,
2013-02-01 23:14:00,19.8,16.8,30.23,SW,222,7.0,11.0,88,0.00,,,0.00,Wunderground v.1.15,2013-02-02 05:14:00,
2013-02-01 23:16:00,19.8,16.8,30.24,SW,228,7.0,11.0,88,0.00,,,0.00,Wunderground v.1.15,2013-02-02 05:16:00,
2013-02-01 23:18:00,19.8,17.1,30.24,WSW,239,8.0,11.0,89,0.00,,,0.00,Wunderground v.1.15,2013-02-02 05:18:00,
2013-02-01 23:19:00,19.8,17.1,30.24,SW,235,8.0,8.0,89,0.00,,,0.00,Wunderground v.1.15,2013-02-02 05:19:00,
2013-02-01 23:21:00,19.9,17.2,30.24,SW,225,7.0,8.0,89,0.00,,,0.00,Wunderground v.1.15,2013-02-02 05:21:00,
2013-02-01 23:23:00,19.9,17.2,30.23,SSW,203,7.0,9.0,89,0.00,,,0.00,Wunderground v.1.15,2013-02-02 05:23:00,
2013-02-01 23:24:00,19.8,17.1,30.23,SW,229,7.0,9.0,89,0.00,,,0.00,Wunderground v.1.15,2013-02-02 05:24:00,
2013-02-01 23:25:00,19.8,17.1,30.23,SSW,211,7.0,9.0,89,0.00,,,0.00,Wunderground v.1.15,2013-02-02 05:25:00,
2013-02-01 23:26:00,19.8,17.1,30.23,SSW,210,7.0,9.0,89,0.00,,,0.00,Wunderground v.1.15,2013-02-02 05:26:00,
2013-02-01 23:30:00,19.8,17.1,30.22,SSW,195,7.0,9.0,89,0.00,,,0.00,Wunderground v.1.15,2013-02-02 05:30:00,
2013-02-01 23:32:00,19.9,17.2,30.22,South,170,6.0,9.0,89,0.00,,,0.00,Wunderground v.1.15,2013-02-02 05:32:00,
2013-02-01 23:37:00,19.9,17.2,30.22,South,189,6.0,9.0,89,0.00,,,0.00,Wunderground v.1.15,2013-02-02 05:37:00,
2013-02-01 23:39:00,19.9,17.4,30.22,SSW,192,6.0,6.0,90,0.00,,,0.00,Wunderground v.1.15,2013-02-02 05:39:00,
2013-02-01 23:42:00,19.9,17.4,30.22,South,186,6.0,6.0,90,0.00,,,0.00,Wunderground v.1.15,2013-02-02 05:42:00,
2013-02-01 23:43:00,20.0,17.5,30.22,SSW,195,6.0,8.0,90,0.00,,,0.00,Wunderground v.1.15,2013-02-02 05:43:00,
2013-02-01 23:45:00,19.9,17.4,30.22,SSW,201,6.0,8.0,90,0.00,,,0.00,Wunderground v.1.15,2013-02-02 05:45:00,
2013-02-01 23:46:00,19.9,17.4,30.22,SSW,192,6.0,8.0,90,0.00,,,0.00,Wunderground v.1.15,2013-02-02 05:46:00,
2013-02-01 23:48:00,19.9,17.4,30.22,SSW,212,6.0,8.0,90,0.00,,,0.00,Wunderground v.1.15,2013-02-02 05:48:00,
2013-02-01 23:50:00,20.0,17.5,30.22,SSW,210,6.0,7.0,90,0.00,,,0.00,Wunderground v.1.15,2013-02-02 05:50:00,
2013-02-01 23:54:00,20.0,17.5,30.22,SSW,208,6.0,7.0,90,0.00,,,0.00,Wunderground v.1.15,2013-02-02 05:54:00,
2013-02-01 23:56:00,20.0,17.5,30.22,SSW,211,6.0,7.0,90,0.00,,,0.00,Wunderground v.1.15,2013-02-02 05:56:00,
2013-02-01 23:58:00,20.0,17.5,30.22,SW,224,7.0,8.0,90,0.00,,,0.00,Wunderground v.1.15,2013-02-02 05:58:00,